GFSSGP_925_thetae_000.txt.gz
Theta_e
309 311 312 311 310 306 310 311 310 317 339 335 333 332 336 338 337 333 336 337 324 327 333 336 338 340 341 340 341 341 340 338 336 333 331 329 332 330 329 327 325 327 328 327 326 325 326 329 328
311 313 309 305 308 309 311 311 328 327 337 334 334 336 339 344 339 336 330 327 322 324 329 332 333 336 338 339 341 340 339 336 333 334 334 333 329 327 326 327 330 330 328 325 323 325 333 333 333
312 310 306 306 306 311 315 313 332 334 333 329 338 336 338 342 339 337 332 327 325 322 322 323 328 330 330 331 334 334 333 331 330 330 330 333 334 333 332 331 329 327 323 321 323 327 330 328 326
312 305 302 307 311 311 314 315 330 331 328 332 336 338 334 336 339 337 333 331 327 324 322 321 320 320 320 321 321 323 325 326 325 326 326 330 332 331 329 326 323 325 326 325 328 330 330 329 328
307 302 305 307 310 311 314 319 319 325 327 327 330 338 337 336 339 336 334 330 327 325 323 322 322 321 321 321 320 320 321 322 323 323 324 325 326 325 325 324 324 325 328 327 326 325 325 328 330
305 302 305 307 309 308 310 313 320 324 324 327 331 334 334 337 337 336 335 331 327 325 325 323 322 321 322 322 321 320 320 322 323 325 325 325 326 325 325 325 326 328 326 326 325 325 325 324 325
305 303 306 307 308 309 309 307 310 313 317 321 327 336 334 333 336 336 336 332 328 327 327 326 325 323 323 322 321 322 322 322 323 324 324 324 323 323 323 323 324 324 323 323 323 324 326 328 328
301 303 306 306 307 309 308 309 309 310 314 319 322 335 336 333 337 336 336 333 330 330 330 331 329 329 326 323 323 322 321 322 323 324 324 323 323 322 322 320 319 319 319 320 321 321 323 325 325
303 304 306 308 308 310 308 311 309 309 317 313 320 323 324 335 337 336 337 335 333 332 332 332 331 331 328 326 326 324 324 324 323 324 323 324 323 322 319 319 318 317 317 318 317 317 317 319 322
305 305 310 308 307 310 310 310 309 312 318 323 325 324 329 335 334 335 337 336 336 335 334 333 333 332 330 329 328 327 327 327 327 326 325 325 325 322 320 319 318 315 314 314 313 313 312 315 316
309 310 310 312 309 308 311 312 310 308 314 321 321 324 328 332 330 333 335 337 337 336 335 333 332 333 332 332 329 328 328 328 327 327 326 325 324 324 322 319 318 318 315 315 312 313 314 313 314
312 311 310 312 311 311 312 311 312 308 310 313 318 323 328 329 329 329 332 335 336 336 334 333 326 324 324 329 331 330 328 328 328 327 326 324 323 323 318 316 316 318 317 317 314 315 316 315 314
314 313 312 313 310 312 312 312 312 310 309 309 315 323 329 330 331 329 330 332 333 334 334 327 322 322 325 328 329 328 329 329 328 328 327 324 322 319 319 318 318 318 319 318 316 313 306 304 303
315 315 314 313 314 313 314 313 313 312 309 309 317 319 325 328 331 326 326 327 330 330 330 324 322 323 325 324 325 326 327 327 327 327 326 324 320 318 319 320 319 319 320 318 312 306 304 303 303
314 315 311 311 311 315 312 311 311 311 308 309 308 317 320 322 326 324 326 326 327 328 325 322 320 319 319 318 318 319 321 321 320 320 318 317 316 314 315 317 318 318 320 316 310 307 303 304 304
310 309 311 312 312 311 310 311 310 309 310 309 306 310 316 317 318 321 320 320 324 326 321 320 318 317 316 315 315 316 318 319 317 316 315 313 312 312 311 311 311 311 315 313 308 307 303 304 304
308 311 312 311 311 314 313 311 309 308 309 309 307 305 309 310 310 313 315 319 323 322 319 318 317 315 314 313 313 315 316 314 313 313 313 312 312 311 311 311 310 308 309 309 307 304 303 304 304
313 311 312 312 312 313 314 312 310 310 309 308 306 305 306 308 311 310 312 313 315 316 316 317 314 314 312 311 311 311 310 310 310 309 309 309 309 310 311 311 311 308 308 308 307 304 304 304 304
313 313 315 313 313 315 315 313 310 305 306 306 306 306 307 309 307 308 310 312 313 314 316 314 313 312 311 311 311 310 310 310 309 309 309 308 308 308 309 311 311 310 308 307 307 305 305 304 304
313 315 312 312 312 315 314 314 308 309 308 307 307 308 309 308 307 307 310 312 314 314 313 313 312 311 311 311 310 309 309 309 309 310 310 309 308 308 308 307 308 310 308 307 307 306 305 304 304
313 314 314 315 313 314 312 313 311 310 310 308 307 308 309 308 308 308 308 311 311 312 312 312 311 310 309 308 308 309 308 309 309 310 310 310 310 309 307 307 307 308 310 307 306 307 305 304 304
315 312 314 314 317 318 312 316 314 310 312 310 309 308 309 309 308 308 308 309 310 310 310 310 309 309 310 310 309 308 308 307 308 307 307 307 308 307 307 306 305 307 310 308 306 306 306 304 303
315 314 315 316 316 316 315 313 313 310 312 311 311 310 309 308 306 308 308 308 309 309 310 311 311 310 309 309 308 307 305 304 304 304 305 304 304 304 305 306 305 304 305 306 305 305 304 303 301
314 315 313 313 314 318 316 315 313 313 312 311 312 311 309 309 306 309 309 310 310 310 310 310 310 309 309 308 307 304 304 304 303 303 303 303 303 303 303 304 304 302 302 302 301 299 296 296 297
314 312 313 315 314 318 316 315 312 313 312 312 312 311 309 306 305 305 306 308 309 309 309 309 308 308 307 306 305 305 305 305 302 301 302 302 302 302 302 301 300 298 297 297 297 297 297 297 297
317 315 313 316 315 316 314 317 316 313 310 309 308 308 307 306 307 306 306 307 308 308 308 308 307 307 306 307 306 306 305 304 301 301 301 301 301 299 298 298 297 296 297 298 298 298 297 297 296
318 317 314 313 303 311 315 316 314 312 313 312 308 307 306 305 305 306 307 308 308 308 308 307 307 307 306 306 305 305 305 302 301 300 300 299 299 297 297 297 298 298 298 298 299 298 295 292 292
315 314 316 313 314 318 318 317 317 315 313 311 308 308 307 306 306 307 308 309 309 308 308 307 306 306 306 305 305 305 302 300 300 299 298 297 297 297 297 297 295 294 294 294 294 292 291 292 292
316 315 315 315 314 315 315 316 313 313 312 310 309 309 308 307 306 305 307 308 308 308 308 307 305 305 305 303 303 301 300 299 297 296 296 295 296 294 293 293 293 293 292 292 293 293 292 291 291
315 316 313 311 313 312 309 316 312 312 311 309 310 309 308 307 306 305 307 307 308 307 307 307 305 304 302 302 300 299 299 297 294 294 294 295 293 292 292 292 292 292 291 291 292 290 289 288 288

GFSSGP_925_thetae_003.txt.gz
Theta_e
309 312 313 312 316 315 315 316 312 334 339 336 335 334 340 341 338 340 335 332 325 330 337 339 339 339 339 339 340 340 339 335 333 332 333 335 332 331 330 329 326 326 329 327 325 327 335 336 335
310 312 309 311 316 319 322 318 321 338 340 336 337 339 341 343 341 337 334 334 324 328 333 335 336 338 339 339 340 339 339 336 334 333 331 329 330 329 328 327 330 330 327 323 326 334 334 332 330
312 310 313 313 313 318 328 324 340 340 334 336 340 338 341 343 339 335 332 323 321 323 329 331 331 332 334 333 335 337 336 334 334 334 334 334 333 332 332 332 329 325 324 324 327 331 330 329 329
312 309 309 319 317 314 325 332 341 337 331 337 338 339 337 337 339 337 329 325 322 321 322 323 325 327 328 331 333 334 334 333 332 331 332 332 333 333 331 327 323 325 325 327 328 328 327 329 330
307 309 315 319 319 319 319 324 334 331 330 334 333 340 338 337 338 335 331 328 323 321 321 321 321 321 321 322 323 323 322 323 324 323 324 327 327 324 323 324 325 329 329 328 326 324 325 324 323
310 309 317 320 317 311 317 320 325 325 329 332 337 338 337 335 335 333 331 325 323 322 322 321 322 321 321 321 321 320 321 322 323 323 324 325 325 325 324 325 326 326 325 323 323 324 326 328 327
310 310 310 309 311 310 311 308 317 323 325 323 331 336 335 336 335 334 331 326 325 324 323 323 322 321 322 322 322 322 322 322 323 323 323 323 323 323 323 323 322 322 320 319 320 321 322 325 326
306 310 309 308 310 310 309 310 310 314 320 321 326 333 340 337 335 334 332 328 327 326 325 325 325 325 324 322 323 322 321 321 322 322 322 322 323 323 322 321 319 317 317 317 317 317 318 320 324
305 311 310 309 310 311 309 311 309 311 322 316 319 330 327 336 335 334 334 330 328 327 328 329 328 328 328 326 325 324 324 324 324 324 323 323 323 323 320 318 318 316 314 314 313 312 313 314 317
310 312 311 309 309 311 311 310 310 313 318 321 324 324 330 335 336 336 336 334 332 331 330 330 330 330 328 327 327 325 325 326 326 326 326 324 324 324 321 319 319 318 316 313 311 310 310 312 314
311 313 311 311 309 311 312 313 310 313 317 319 321 327 333 336 337 337 337 335 334 333 332 331 331 330 329 329 328 327 325 326 326 326 326 325 323 322 322 319 317 317 318 316 316 312 314 315 315
315 311 312 312 311 312 313 312 312 311 314 313 319 329 334 335 336 337 337 337 335 334 334 333 330 330 327 328 329 329 329 327 327 327 327 326 324 322 321 318 318 318 319 319 317 316 314 309 309
315 314 312 312 310 312 312 313 313 313 312 310 316 328 335 335 333 335 336 336 334 334 335 334 331 326 322 324 327 329 329 327 328 328 327 327 325 322 319 317 318 318 319 319 319 314 306 302 302
315 314 313 313 314 313 314 314 313 313 310 310 315 325 333 336 334 331 329 332 332 332 333 333 327 322 321 323 323 323 324 325 326 325 324 326 324 320 317 314 314 315 317 319 319 312 305 303 303
313 314 312 312 312 313 311 315 314 312 310 311 310 318 329 333 334 333 331 329 328 330 331 331 323 319 317 319 318 317 317 319 319 318 318 317 316 314 314 313 312 312 314 317 319 312 307 303 304
312 312 316 313 315 313 314 318 316 310 312 314 313 308 319 328 330 329 326 324 324 327 329 328 321 316 316 316 316 314 315 316 317 315 315 314 313 312 311 311 310 310 311 313 316 312 307 303 304
312 313 313 314 313 315 317 318 316 313 313 315 313 310 312 320 318 315 316 317 320 326 328 323 319 316 315 315 313 313 312 312 312 311 311 310 310 310 310 310 309 309 311 311 311 310 307 305 305
315 313 314 314 314 316 316 317 315 310 309 312 311 310 310 315 314 311 312 314 320 324 323 319 317 314 315 314 312 311 311 311 310 309 309 309 309 309 310 310 309 310 311 310 309 309 307 305 305
312 313 315 314 313 316 316 315 314 311 312 311 311 311 311 312 310 310 311 312 315 317 317 317 315 314 314 311 309 310 309 309 309 309 308 308 308 307 307 308 308 309 311 311 310 308 307 306 304
313 315 313 314 313 316 316 316 313 313 312 312 313 313 313 313 312 310 311 312 313 315 316 315 311 309 308 308 308 308 308 309 309 308 308 307 307 307 307 307 307 307 309 310 310 309 308 306 306
314 314 314 315 314 314 314 317 316 313 312 312 312 312 312 313 313 311 311 312 312 311 310 309 308 309 310 309 309 308 308 307 307 306 305 304 304 303 304 304 304 305 307 308 308 309 308 308 306
317 312 315 315 318 321 314 320 318 314 313 313 313 313 313 313 312 311 310 310 309 308 309 310 309 309 308 308 307 305 304 305 305 304 303 301 300 302 303 303 303 303 306 307 307 308 308 308 308
318 314 316 316 319 318 319 319 319 315 316 313 313 312 312 311 310 310 309 310 309 309 309 308 308 308 308 307 306 306 305 305 304 303 302 301 300 301 302 302 302 302 302 303 305 306 306 306 306
314 316 314 315 317 323 318 317 319 318 315 314 313 313 311 311 310 309 309 309 308 308 308 308 308 308 308 306 306 305 305 305 304 303 301 301 301 300 301 301 301 301 300 300 300 299 300 300 300
317 315 321 325 326 325 316 317 317 316 313 313 313 313 312 312 312 311 309 309 308 308 308 308 307 307 306 306 305 305 306 305 303 301 300 300 300 300 299 299 298 298 297 298 298 298 298 298 298
318 317 322 320 323 322 316 319 318 314 313 312 311 310 310 310 310 311 309 309 309 308 307 307 306 306 306 305 305 305 306 305 301 300 299 299 298 298 297 297 296 297 298 298 299 299 298 297 295
318 321 315 317 307 322 319 318 315 314 314 313 311 311 311 311 311 310 310 309 309 308 307 307 306 304 305 305 305 305 304 301 300 299 298 297 297 297 297 297 297 296 295 295 295 294 293 293 292
317 315 320 320 323 322 320 319 319 316 315 312 311 313 312 312 311 311 310 310 308 308 307 308 306 305 304 305 303 302 300 300 299 297 296 295 296 297 295 293 292 293 293 293 293 293 293 293 293
319 319 317 317 319 324 323 319 316 316 314 314 313 312 312 312 312 311 310 308 307 308 306 306 306 305 304 303 302 300 300 299 295 294 294 294 295 293 293 293 293 293 293 292 291 291 291 291 291
315 316 314 317 316 318 318 317 312 314 313 313 312 312 311 311 311 310 309 308 308 307 306 306 305 303 302 301 300 299 297 295 293 294 294 294 294 292 293 293 293 293 292 293 292 290 289 289 289

GFSSGP_925_thetae_006.txt.gz
Theta_e
312 312 315 317 321 325 328 328 333 340 340 339 336 336 339 342 340 344 337 335 331 337 341 341 339 338 338 339 340 339 337 334 335 336 335 334 333 333 331 329 327 328 328 327 328 334 335 335 336
313 311 314 319 322 324 327 329 333 337 339 337 337 337 336 340 339 338 336 332 332 336 340 341 339 339 340 340 340 339 338 336 334 332 332 332 332 331 330 329 330 328 326 331 333 334 333 331 330
312 311 318 321 321 325 327 328 338 338 336 337 337 337 338 337 335 334 333 329 331 334 337 339 337 338 340 340 341 340 339 336 334 333 334 334 334 333 332 332 330 324 324 326 328 328 327 327 329
314 315 319 322 322 326 328 333 334 336 338 336 332 335 338 338 335 335 332 329 328 330 333 330 330 331 332 334 334 334 335 335 333 331 331 332 332 331 328 324 321 322 324 326 327 325 324 324 324
313 318 323 323 324 327 330 333 335 334 335 336 334 335 337 340 340 334 333 329 327 327 329 328 324 324 324 323 324 326 327 326 325 325 326 326 326 324 323 323 325 325 326 325 324 324 325 326 326
317 321 323 323 325 327 329 332 330 328 331 333 333 332 336 339 336 334 332 329 326 327 330 329 322 321 321 321 321 321 321 322 323 323 323 323 323 323 322 322 322 322 321 320 321 321 323 325 327
318 320 320 321 322 322 322 323 325 325 326 327 329 328 336 338 334 333 330 327 327 327 329 330 330 328 322 322 322 322 323 323 323 323 323 323 323 323 323 323 322 320 319 318 318 318 319 321 323
315 317 317 317 317 316 314 315 319 320 323 329 328 325 332 335 336 334 330 328 328 330 329 331 331 330 330 330 323 322 322 322 323 323 323 323 324 324 323 321 322 318 316 315 314 314 314 315 318
314 316 315 314 315 315 314 315 315 319 324 324 325 326 330 335 336 336 332 330 330 331 332 332 331 331 330 328 328 325 324 324 325 328 326 328 328 328 326 321 318 317 316 314 312 311 310 310 316
317 317 315 314 315 315 315 315 316 318 318 319 323 327 333 337 337 336 335 331 332 332 333 333 333 332 330 327 330 329 328 329 331 331 331 329 329 328 325 324 318 316 316 317 315 315 313 316 317
317 316 315 314 315 316 315 315 315 315 316 317 319 325 334 336 336 335 334 330 332 333 334 333 335 334 331 327 328 327 327 327 329 332 332 331 330 329 327 326 324 323 322 320 320 320 319 320 318
316 316 316 315 315 315 316 316 316 316 316 317 319 324 331 335 332 331 330 330 330 332 334 335 334 335 333 328 327 327 327 326 327 328 331 330 328 327 327 324 322 320 320 321 320 320 320 316 314
317 318 318 316 315 317 316 317 318 317 317 316 320 327 329 330 329 329 328 327 328 332 335 336 336 334 330 331 327 327 327 326 326 327 326 327 325 325 323 321 319 319 319 319 320 319 316 311 310
319 319 318 318 318 317 318 318 318 317 317 317 318 324 328 329 327 328 329 330 331 333 334 337 337 333 328 327 327 325 324 323 323 322 322 324 324 322 320 318 317 316 316 317 318 317 314 311 310
318 319 319 318 318 318 316 319 318 317 316 317 316 319 326 328 326 326 326 329 329 331 332 336 335 328 327 325 323 320 319 319 319 318 319 320 320 318 318 316 316 316 316 317 318 318 315 312 310
318 318 319 319 319 319 320 320 319 319 319 318 319 318 323 328 328 327 327 330 331 330 332 333 330 324 323 322 322 320 320 320 319 318 318 319 319 319 318 317 316 316 316 316 316 316 314 313 310
318 316 316 318 318 320 320 320 321 318 317 320 320 319 318 325 329 330 331 330 327 327 329 331 327 320 320 322 321 320 320 318 316 316 315 315 315 316 316 315 315 316 316 315 315 315 314 313 311
317 317 318 317 318 319 320 321 318 317 317 319 320 319 317 321 328 324 321 320 322 326 329 329 323 322 322 321 318 316 315 315 313 313 312 312 312 312 313 314 315 316 316 315 314 314 314 312 311
316 317 317 317 318 321 322 319 318 318 319 319 319 317 318 321 319 318 317 317 320 326 326 323 322 316 315 314 313 313 313 313 313 312 312 312 311 311 311 311 311 312 313 313 314 314 314 314 312
317 317 317 318 318 321 321 320 318 318 318 319 319 319 319 319 318 317 318 318 319 320 319 316 314 313 313 312 312 312 312 312 312 311 311 309 307 307 307 308 308 309 309 310 311 313 313 314 313
318 318 320 320 319 320 320 322 319 318 318 318 318 318 318 318 318 318 317 316 316 315 314 314 313 313 312 311 311 312 312 311 311 309 308 307 306 305 305 306 306 307 307 307 308 309 310 312 312
320 318 320 320 321 323 321 323 321 318 318 318 318 318 318 317 317 316 316 316 315 315 314 313 312 312 310 310 310 310 310 310 309 308 307 306 304 304 304 304 305 305 306 306 306 306 307 308 310
321 319 320 321 322 323 323 322 323 320 319 318 317 317 317 316 317 317 315 314 314 313 313 313 312 311 311 309 309 309 309 308 308 307 305 303 303 303 303 304 304 305 304 304 305 306 306 307 308
319 320 321 322 325 327 323 322 324 322 319 318 317 318 318 318 316 315 314 314 314 313 313 312 311 311 310 309 308 308 309 308 307 305 303 303 302 302 302 303 303 303 303 303 303 303 303 303 304
321 321 325 329 329 327 320 321 323 318 317 318 318 318 318 318 317 316 315 315 314 314 313 311 311 310 310 309 307 307 306 306 305 304 302 301 301 301 302 302 302 302 302 301 301 302 301 300 299
321 322 326 325 325 324 320 321 323 318 317 317 316 316 316 316 316 315 314 314 314 313 312 312 311 310 309 307 306 305 306 306 304 302 301 300 300 301 301 301 301 301 301 301 301 300 298 298 299
321 324 320 323 318 327 321 321 319 318 318 317 316 316 317 316 315 315 314 313 313 313 312 311 310 310 308 307 307 306 306 303 302 300 299 299 300 300 300 300 299 297 297 297 296 296 295 295 294
321 319 323 321 328 318 316 318 319 320 319 317 316 316 316 316 315 315 314 313 312 312 312 311 311 310 309 308 306 305 303 301 299 298 298 298 299 300 298 297 296 296 296 296 295 295 294 294 293
322 322 320 320 321 321 321 317 319 318 317 316 316 316 316 316 315 315 313 312 312 312 311 310 310 309 308 305 304 302 301 299 298 298 297 298 297 297 296 296 296 296 295 294 293 293 293 293 292
319 320 319 318 318 320 321 319 317 317 316 315 316 315 315 315 315 314 313 312 312 311 310 309 307 305 304 302 301 301 299 298 298 298 297 297 297 297 296 296 295 295 295 294 293 293 292 291 291

GFSSGP_925_thetae_012.txt.gz
Theta_e
308 313 316 318 322 322 323 333 334 335 336 333 333 333 336 339 344 345 334 337 342 341 341 339 338 339 340 339 337 336 335 335 336 335 334 334 333 332 330 329 329 328 328 331 334 328 326 325 326
310 317 317 320 323 325 329 331 333 333 331 328 331 331 335 336 336 333 334 339 340 342 342 339 338 339 339 340 339 338 335 333 332 331 331 331 331 331 332 331 326 323 328 332 329 326 325 324 324
311 317 318 321 322 323 330 332 334 330 329 331 331 334 333 334 332 331 334 338 343 343 339 339 339 340 340 340 340 339 336 333 332 332 333 332 332 331 326 322 323 329 331 331 329 323 322 322 322
317 318 317 320 323 327 329 332 330 330 332 330 331 334 332 331 330 330 332 335 336 338 335 336 336 338 339 338 337 336 335 333 330 328 328 327 326 324 323 325 325 324 321 317 317 318 317 318 319
319 318 318 323 327 329 330 329 328 331 330 329 329 336 336 331 328 328 328 329 330 332 327 326 325 325 325 325 325 325 325 325 324 324 324 324 323 322 322 321 318 315 314 313 313 313 313 312 312
317 318 320 324 328 329 329 328 330 332 330 326 329 335 336 330 327 326 325 325 325 329 323 320 319 319 320 320 321 322 323 323 323 323 322 322 322 322 321 320 318 315 313 312 311 310 309 309 309
318 319 320 326 327 328 329 327 325 324 326 326 327 333 333 330 328 325 324 324 327 327 326 326 321 320 320 320 321 322 322 322 322 322 322 322 324 324 324 321 316 314 313 313 312 311 310 309 308
318 318 319 324 323 323 321 323 323 323 323 323 325 328 331 331 328 325 323 324 326 329 329 330 330 330 332 325 317 319 321 322 324 326 326 328 330 328 326 325 321 318 318 318 317 318 317 315 315
318 318 322 320 321 318 317 317 318 320 322 322 326 326 331 329 327 325 324 325 326 329 330 329 328 327 331 327 326 328 324 330 331 331 329 330 329 330 327 325 325 324 323 321 321 320 320 320 320
318 320 318 318 318 317 316 317 316 318 320 320 325 329 332 330 329 327 326 326 328 330 330 332 330 328 325 325 328 327 327 328 330 330 330 330 328 329 327 327 326 325 322 321 322 321 321 322 321
318 318 317 317 316 317 316 316 316 318 317 319 321 324 331 331 330 328 326 326 329 330 330 334 332 329 329 325 326 327 327 326 327 331 328 328 326 326 326 324 324 321 320 321 320 321 321 321 320
318 318 317 316 316 316 315 316 315 317 318 319 321 324 330 329 329 329 328 327 328 330 329 335 333 329 328 329 328 327 327 325 326 326 327 325 324 324 322 321 320 319 318 318 319 318 318 319 318
318 317 316 316 315 317 317 317 318 317 318 319 322 326 329 330 329 329 329 328 328 330 329 332 332 328 328 325 327 327 326 326 324 323 323 323 323 322 321 319 319 318 317 317 317 317 318 319 317
318 317 317 317 318 317 317 318 319 319 318 317 320 325 327 329 329 329 329 328 328 328 330 332 333 328 325 326 327 326 323 322 321 320 319 321 321 321 320 319 319 318 318 318 317 317 318 319 318
319 319 319 319 320 319 318 319 318 319 319 318 318 320 325 327 327 327 327 328 328 327 328 331 334 328 325 325 325 323 320 321 320 320 320 320 320 320 319 319 318 318 318 318 317 318 318 317 317
318 320 320 320 320 321 319 320 319 320 319 319 319 319 321 325 325 327 327 327 328 328 328 331 332 327 324 324 322 321 322 320 320 320 318 319 319 317 317 317 317 317 317 317 318 318 318 318 317
320 320 321 322 320 322 320 321 320 320 321 320 321 321 320 321 325 325 326 326 326 327 328 329 330 326 323 323 322 322 321 319 318 317 317 316 316 316 315 315 315 315 315 316 315 316 317 318 317
320 319 319 318 320 318 318 320 322 321 321 321 321 320 322 321 324 326 325 326 326 326 326 329 329 323 321 322 322 320 318 318 317 317 316 315 315 313 311 311 311 311 311 311 312 312 311 313 314
318 318 319 321 320 319 319 321 321 321 322 322 323 323 323 327 327 324 323 323 326 327 326 326 324 322 321 320 318 317 317 316 316 316 314 313 312 311 310 309 309 308 309 309 309 309 310 310 311
319 319 320 320 319 318 322 320 321 321 322 322 322 323 325 324 323 323 324 325 324 323 322 320 318 317 316 317 316 315 315 315 315 315 313 312 311 309 308 307 307 308 307 307 308 309 309 308 308
321 320 323 322 321 321 321 322 321 321 321 321 322 322 322 322 322 322 322 321 320 319 318 318 316 315 314 314 315 314 314 314 313 313 312 312 311 309 307 306 306 305 307 306 306 307 307 308 307
322 322 321 321 321 322 321 323 322 321 321 321 321 321 321 320 320 321 321 320 319 318 317 316 316 315 314 313 314 314 313 314 314 314 312 311 308 307 305 304 304 304 305 305 306 306 305 306 307
323 322 321 321 322 322 323 324 325 322 321 321 321 321 321 321 321 320 319 319 318 318 317 316 315 315 315 314 313 313 314 312 311 309 309 307 306 304 303 303 303 304 303 304 305 304 305 305 303
322 323 323 324 325 332 323 324 326 323 322 321 321 321 321 320 320 319 318 318 318 318 317 316 315 315 314 314 313 311 310 310 309 308 306 304 303 302 302 302 302 303 304 304 303 303 302 301 301
322 325 334 337 337 335 326 322 327 323 322 321 321 321 321 321 321 320 319 318 317 317 316 316 316 316 314 313 312 312 310 309 307 306 304 302 302 302 301 301 302 302 301 300 300 300 300 299 299
323 323 336 331 334 330 322 321 323 322 321 320 319 319 320 320 319 319 317 316 316 316 316 316 316 315 314 313 312 311 308 306 305 303 301 301 301 301 300 300 300 299 299 298 298 298 297 297 297
324 324 320 327 326 330 320 324 322 321 320 319 319 318 319 318 318 318 317 316 316 315 315 314 314 314 312 310 308 308 306 305 303 301 300 300 300 300 299 298 298 298 298 297 297 297 296 296 296
322 320 326 331 330 324 319 319 324 322 321 320 318 318 318 317 318 318 316 316 315 315 314 313 312 311 310 308 306 305 304 304 302 301 300 300 298 297 297 298 298 298 297 297 296 296 295 295 295
322 323 322 320 325 326 324 320 318 318 319 318 317 317 318 317 316 316 315 315 314 313 313 311 310 309 308 307 305 304 303 302 301 300 299 298 297 297 297 297 296 296 295 295 294 293 294 294 293
319 320 320 329 322 328 326 320 319 318 318 319 317 316 317 317 316 315 314 313 312 311 311 310 308 307 306 305 304 302 302 300 299 299 298 296 296 296 295 294 294 293 292 291 291 291 291 291 292

GFSSGP_925_thetae_018.txt.gz
Theta_e
308 308 315 315 317 316 317 324 331 334 335 335 335 335 335 336 339 345 339 339 340 340 339 338 337 336 335 335 335 335 334 333 331 330 329 328 327 325 322 319 320 320 319 320 318 318 318 318 319
308 313 316 313 317 319 323 328 336 334 332 331 332 335 339 344 341 340 339 339 339 339 339 338 337 337 336 334 333 332 331 330 330 329 326 324 322 319 319 319 317 314 311 312 312 312 311 311 310
310 312 313 314 315 318 328 327 328 330 331 331 331 329 331 340 339 339 340 339 338 339 339 338 338 338 337 335 333 331 332 331 328 323 321 320 320 320 319 314 311 310 310 310 310 309 309 309 308
317 313 310 313 314 314 329 326 331 332 331 330 329 333 328 336 340 341 341 338 337 338 338 338 339 337 336 335 333 332 326 323 322 321 320 320 319 318 317 313 310 309 309 309 309 309 308 308 308
318 311 312 313 318 328 326 326 329 332 333 330 329 331 331 341 342 341 338 336 336 338 338 338 336 334 332 330 327 323 322 321 319 319 319 319 318 317 316 311 310 309 310 312 312 313 312 310 310
313 311 313 319 331 325 325 326 328 333 329 329 330 330 327 338 339 337 336 335 334 334 334 330 325 322 321 321 320 320 319 319 319 319 320 322 322 320 320 320 319 319 320 318 319 319 318 318 316
314 313 314 314 321 326 321 320 326 333 333 331 326 329 323 327 332 328 326 323 323 323 320 319 318 318 318 318 318 318 319 320 320 322 326 326 325 324 323 324 323 321 321 321 320 320 320 320 319
312 313 314 313 327 323 316 315 317 323 324 327 326 327 325 321 327 324 321 318 318 318 320 319 319 314 310 312 316 317 320 324 325 328 328 327 326 326 326 325 324 321 321 321 319 320 320 321 320
312 313 312 315 317 318 313 317 315 320 326 327 325 324 323 325 327 326 323 321 320 320 325 326 325 321 322 318 323 326 328 328 328 329 328 327 327 327 326 326 324 321 321 320 318 319 319 320 319
312 311 312 313 314 313 312 313 314 324 328 328 325 323 321 323 325 324 324 324 326 326 327 328 327 326 326 324 326 327 328 329 329 329 328 328 327 328 326 325 320 319 318 317 318 319 318 317 318
312 312 311 311 311 310 311 312 314 320 328 328 326 323 321 320 321 322 323 327 328 329 329 328 327 326 327 327 326 327 328 329 329 328 327 326 327 324 322 320 318 318 317 317 317 317 316 316 317
313 311 312 313 311 310 311 310 312 314 318 327 325 323 322 321 321 321 323 327 328 329 328 327 325 327 327 326 327 327 328 330 329 328 325 324 324 322 320 318 318 318 317 317 317 317 317 316 317
311 312 311 311 312 312 310 311 312 314 320 326 325 325 324 323 322 323 324 326 329 329 328 327 327 327 327 327 326 326 327 328 327 325 323 319 322 319 319 319 318 318 318 318 318 317 316 316 318
312 311 311 311 313 314 313 315 315 313 317 328 327 326 325 325 324 324 323 324 328 331 329 328 323 326 327 326 325 326 323 324 324 321 319 316 318 319 319 318 318 316 315 314 314 313 314 314 316
311 312 312 313 314 315 314 316 315 311 319 329 329 328 326 326 326 325 325 323 328 332 331 328 322 323 325 326 325 323 321 322 321 320 319 319 319 319 318 316 312 310 311 310 310 310 311 311 310
314 313 314 315 314 316 312 313 314 311 315 323 326 326 325 324 325 326 325 326 327 333 332 328 327 324 325 326 323 324 319 320 320 319 319 319 318 316 315 311 310 311 310 309 308 308 308 307 306
312 313 315 317 314 315 315 315 313 310 312 314 315 316 318 320 322 324 324 325 330 331 329 327 324 326 325 324 322 321 320 318 317 318 316 315 314 313 312 311 310 309 307 307 307 306 305 304 303
315 315 315 315 316 316 315 315 315 313 312 313 313 320 322 322 321 322 323 328 332 330 328 327 327 325 324 325 322 320 317 316 315 314 313 312 310 310 309 309 307 306 306 305 305 305 304 303 303
316 316 315 316 316 317 314 316 316 314 318 319 322 322 321 319 318 318 319 320 326 327 324 324 326 325 324 316 315 315 314 313 312 311 311 310 310 309 308 306 304 304 304 305 304 303 303 303 305
318 317 317 316 316 314 314 316 315 317 316 320 321 320 320 318 317 316 317 319 318 319 316 315 315 315 315 314 314 314 313 313 313 311 311 308 307 306 305 303 302 301 301 301 301 302 304 305 305
320 319 319 319 317 315 316 316 318 317 317 317 317 318 319 318 317 316 315 315 315 315 315 314 314 314 314 314 313 313 313 313 312 309 307 306 306 305 303 301 300 299 301 302 303 303 304 304 304
322 320 319 319 316 314 314 318 318 317 318 318 317 317 318 318 317 316 315 315 315 314 314 314 314 314 314 314 314 313 313 312 310 309 307 305 305 303 301 300 300 300 301 302 301 301 301 301 302
321 320 319 319 318 319 318 317 317 318 319 318 316 316 316 316 316 314 316 316 316 315 315 315 314 314 314 314 313 313 311 309 308 306 306 305 304 301 300 299 300 300 299 300 300 300 300 299 299
318 321 321 320 319 321 322 320 319 319 318 318 316 315 314 314 313 315 316 317 316 316 316 315 315 314 314 313 312 311 309 308 306 304 303 302 300 300 299 299 298 297 298 297 297 297 297 297 296
317 321 321 324 322 322 324 324 322 319 319 319 317 315 314 312 312 313 315 316 316 316 315 315 314 312 313 312 310 309 307 306 305 304 303 301 300 300 298 297 297 298 297 295 295 295 295 295 294
321 319 319 328 322 320 319 323 320 318 319 318 316 315 314 312 311 311 311 313 313 313 313 313 311 309 309 308 307 306 305 305 304 303 301 300 300 299 296 294 296 295 295 294 295 294 293 293 292
321 317 317 319 316 316 319 320 318 317 317 317 317 316 313 311 310 310 311 311 312 311 311 310 309 308 307 307 306 305 303 303 302 301 301 300 299 298 294 294 294 294 294 292 293 291 290 291 291
315 316 320 315 319 321 317 323 321 320 319 315 314 312 311 311 310 309 309 309 310 309 308 308 307 307 306 306 305 304 303 302 302 301 301 299 298 296 295 294 294 292 290 290 289 289 289 289 289
317 319 318 316 314 317 316 316 314 320 318 314 312 311 311 309 309 308 308 307 307 306 304 304 304 305 306 305 305 304 303 302 301 300 299 298 296 295 294 294 292 290 289 289 289 288 289 288 287
317 319 316 314 317 312 312 314 314 314 313 313 313 312 309 309 308 307 307 306 305 305 304 304 303 303 304 303 304 303 302 301 299 298 298 297 296 295 294 292 290 290 289 289 288 288 288 287 286

GFSSGP_925_thetae_024.txt.gz
Theta_e
308 308 312 313 315 314 315 317 330 333 337 334 336 339 342 344 341 343 339 339 339 339 339 338 336 335 335 334 335 334 332 328 326 324 322 319 318 316 312 309 311 320 322 321 313 310 309 308 309
308 313 313 310 314 315 323 321 336 336 336 334 335 339 342 347 341 339 339 340 339 338 338 337 336 335 335 335 335 333 328 325 323 320 318 317 315 310 308 309 309 310 312 314 312 308 308 309 309
311 313 309 310 313 316 320 332 335 332 331 331 330 330 341 345 340 338 340 340 338 337 337 337 336 335 334 333 331 328 326 322 319 318 317 316 313 310 308 308 309 310 312 314 315 312 310 316 317
315 310 305 311 314 314 321 332 332 331 330 332 331 335 332 339 338 338 340 339 337 337 336 336 335 334 332 330 328 327 322 320 318 317 315 315 313 310 309 310 314 316 318 318 318 317 317 318 317
313 307 309 312 316 317 319 329 330 331 330 332 330 333 338 339 340 340 340 339 337 337 336 336 335 333 331 329 328 323 321 318 317 316 314 314 314 317 318 318 318 319 318 319 319 319 319 318 315
309 308 310 327 325 323 326 330 330 331 331 331 336 331 334 339 340 341 340 339 338 338 338 337 334 332 330 327 323 321 318 317 316 315 319 316 321 321 320 319 319 319 318 317 317 317 317 317 316
310 309 312 326 328 324 324 328 331 332 332 332 327 335 340 338 339 340 337 338 341 337 338 335 333 331 327 322 320 318 318 317 318 321 322 321 323 323 322 320 320 319 318 318 317 317 317 316 316
309 309 313 317 330 328 323 323 329 330 330 324 329 340 342 335 337 338 339 339 337 337 334 331 328 323 321 319 318 318 318 318 323 325 324 324 324 324 323 321 320 320 319 318 318 317 317 316 316
309 311 310 323 328 329 324 318 320 324 325 325 321 332 334 336 338 337 336 337 337 333 327 323 319 319 317 317 318 319 319 324 326 326 325 325 325 325 324 323 321 319 318 318 318 318 316 315 316
311 310 311 319 325 326 325 320 326 327 327 323 324 326 331 334 335 332 332 332 330 324 320 318 316 315 315 317 318 321 324 327 328 327 326 326 327 326 324 323 321 318 317 317 317 317 316 316 314
310 312 310 313 321 325 322 322 321 327 329 323 328 328 328 329 328 327 326 324 320 319 320 318 316 314 317 319 324 325 326 327 327 327 327 326 326 326 323 319 318 317 318 317 317 316 313 311 312
313 310 309 310 316 316 315 314 327 321 325 322 327 326 326 325 322 321 321 321 321 322 323 320 319 319 322 323 325 327 327 327 328 327 326 324 324 322 319 318 318 317 316 314 311 310 310 309 309
313 311 310 308 308 311 309 313 325 316 322 319 324 323 324 323 320 318 318 320 321 323 324 323 321 321 321 324 326 327 327 328 329 327 325 324 322 320 318 317 315 311 310 310 309 308 308 307 307
311 309 310 310 308 308 309 310 312 315 319 319 322 322 322 322 321 321 322 322 322 323 324 325 324 322 324 325 325 326 327 328 329 327 324 322 320 318 317 313 310 310 309 308 307 307 306 305 304
309 310 310 310 312 312 311 314 313 319 320 320 320 321 319 319 320 321 322 324 325 325 326 326 326 327 325 324 325 325 327 327 328 325 320 320 319 317 312 310 310 309 308 307 307 306 305 304 303
311 310 310 312 313 311 310 311 311 321 322 320 319 320 320 320 320 321 321 322 324 326 327 327 327 325 324 324 325 323 321 324 324 319 318 316 313 311 310 310 310 309 308 306 305 303 302 301 300
309 311 313 315 312 313 311 312 310 314 323 320 319 318 320 320 320 324 322 320 323 327 326 326 325 325 325 322 323 318 317 319 317 314 313 311 310 311 310 311 308 305 304 303 302 301 300 300 301
312 313 312 314 313 310 311 314 314 313 318 319 318 317 318 317 316 322 324 324 326 327 326 324 325 325 325 322 315 315 314 313 313 313 313 311 312 309 308 306 303 303 301 301 300 300 300 301 302
313 314 314 313 312 314 316 317 316 317 318 318 317 317 316 316 316 320 322 325 326 326 325 325 323 324 315 313 313 313 313 313 314 312 309 310 309 306 306 304 303 302 301 299 298 298 299 300 300
314 313 315 315 312 315 317 316 315 316 319 317 316 316 316 316 317 318 322 325 326 326 326 326 324 319 314 315 316 316 315 313 311 309 309 307 306 305 304 303 303 303 301 297 296 297 299 299 299
317 316 317 316 315 313 316 317 316 316 318 317 316 315 316 318 318 317 319 322 321 316 316 318 320 316 315 316 314 313 313 311 309 306 306 305 304 304 305 305 303 299 297 297 296 298 299 298 298
319 318 317 315 315 317 313 321 318 318 319 318 317 315 315 316 315 313 312 312 313 313 313 313 313 313 313 312 312 313 312 312 310 306 304 304 304 303 305 303 299 298 298 296 296 297 297 297 297
320 316 316 315 315 314 316 319 316 318 321 319 317 316 315 314 312 311 311 311 311 311 312 312 312 312 312 313 312 312 311 309 307 305 305 305 304 304 302 300 298 298 296 295 294 295 295 295 295
316 318 316 317 315 317 319 316 316 318 319 318 316 316 315 314 313 312 312 311 311 312 313 313 313 313 312 312 312 311 309 308 307 306 305 304 302 302 300 299 298 296 294 294 293 293 293 292 292
317 317 319 321 319 320 318 318 315 315 316 318 317 315 313 312 311 311 312 312 312 312 312 312 312 311 311 310 309 308 307 306 304 303 303 302 302 301 300 298 297 294 294 294 294 294 294 292 291
316 318 319 326 322 319 317 322 319 314 314 315 314 312 311 311 311 311 311 310 310 310 310 310 309 309 308 307 306 304 303 303 303 303 303 302 301 300 299 297 294 294 294 296 293 292 291 289 289
318 315 314 317 313 315 317 318 317 315 315 314 313 312 310 309 309 308 308 308 309 309 308 308 307 306 306 306 305 305 304 303 303 302 302 301 300 299 298 296 294 294 295 293 292 291 289 289 288
316 314 316 312 316 318 317 318 318 318 317 315 313 311 309 307 306 306 307 307 307 306 304 304 304 304 304 305 304 303 302 300 297 298 299 300 300 299 298 297 295 295 294 293 290 289 289 288 288
316 316 313 313 311 314 313 316 312 317 317 315 311 310 308 306 305 305 306 306 304 303 303 303 302 301 302 302 302 300 296 295 293 295 299 299 298 297 297 296 295 293 292 291 290 289 288 288 287
315 316 311 310 313 310 310 311 310 311 313 311 310 310 307 305 304 304 304 304 304 302 302 302 300 299 300 301 297 295 294 294 295 296 296 295 294 294 296 294 293 294 293 290 290 289 288 288 286

GFSSGP_925_thetae_027.txt.gz
Theta_e
308 307 309 313 317 318 318 318 331 338 341 339 340 340 342 343 344 346 340 339 338 339 340 337 335 334 334 334 334 332 328 324 321 319 317 316 313 309 310 311 319 323 323 320 316 310 309 310 310
309 312 313 315 319 318 322 325 338 340 339 334 334 337 340 340 341 340 340 340 338 339 339 338 335 335 334 335 333 327 323 320 319 317 315 313 309 309 309 311 313 318 320 319 312 312 316 317 316
311 312 314 318 318 318 328 338 338 335 333 332 334 335 339 342 340 339 339 340 339 338 338 336 335 335 335 334 328 324 321 320 318 316 315 311 309 309 309 311 315 318 321 321 316 318 317 314 315
314 312 311 317 317 316 324 336 335 335 332 331 330 335 337 339 338 339 339 339 339 338 338 336 335 335 335 332 326 323 320 318 317 316 314 312 310 309 314 317 318 318 318 319 318 318 316 315 313
311 311 315 320 324 321 318 333 332 333 333 331 328 333 342 340 338 340 339 338 338 338 337 336 335 334 334 329 326 322 319 318 316 315 314 312 314 317 318 318 317 318 317 318 317 317 317 316 315
316 311 318 330 328 327 330 332 333 333 331 331 333 336 340 340 340 339 339 338 337 337 337 336 335 333 329 328 323 320 318 317 315 316 316 319 319 319 319 319 318 318 317 317 317 317 316 316 316
315 314 322 329 328 327 328 331 333 332 332 333 332 342 341 339 339 340 339 339 338 337 337 336 334 331 329 325 322 319 318 316 318 318 320 322 321 320 319 319 319 318 318 317 316 315 314 315 315
313 314 316 328 331 328 325 331 328 329 329 328 333 341 342 337 337 337 338 337 338 340 339 336 334 331 328 324 320 318 318 319 322 322 322 323 323 322 321 320 319 318 318 317 317 316 315 314 315
310 315 315 327 332 328 325 325 326 324 327 325 322 337 337 336 336 336 337 335 334 339 337 334 331 328 323 321 319 319 318 323 324 324 324 324 324 324 322 320 319 317 317 317 318 316 316 314 312
315 316 315 321 328 329 328 325 327 329 329 325 333 334 335 334 335 335 335 334 336 337 333 329 327 323 320 319 319 320 321 324 326 325 325 326 326 325 324 321 319 317 317 317 316 316 312 310 310
313 317 313 321 326 325 326 324 327 329 331 327 337 337 335 334 334 335 334 335 334 330 327 323 320 319 318 319 320 321 324 326 327 327 326 326 326 326 323 318 317 317 317 315 312 310 310 309 308
315 313 312 320 325 323 321 321 328 329 328 326 335 336 335 335 334 334 333 330 326 325 322 319 318 317 318 320 321 324 325 327 327 327 327 326 326 323 318 317 316 315 312 310 309 309 308 308 307
314 313 311 310 319 321 316 322 330 326 323 326 332 334 335 334 332 329 326 324 322 323 321 320 319 319 320 322 323 325 326 327 328 328 326 325 322 319 317 315 312 311 310 309 309 308 307 306 305
314 311 310 309 311 312 316 314 323 319 322 330 332 333 332 330 326 322 320 320 321 322 323 322 321 321 321 322 324 325 326 326 327 327 325 322 320 318 314 311 310 309 310 309 308 306 305 304 304
310 312 312 311 311 312 313 313 312 319 322 328 330 326 326 324 321 320 320 321 322 323 324 324 324 324 323 324 325 325 324 325 325 324 321 320 318 314 311 311 311 309 308 306 305 304 304 304 303
313 312 313 313 313 311 312 314 313 319 322 325 325 323 323 322 322 322 320 322 324 324 325 325 325 323 324 325 320 319 322 321 322 321 318 318 315 312 311 310 309 306 304 304 303 303 303 304 304
313 315 314 314 313 313 312 314 317 315 323 322 322 322 323 323 324 325 323 320 324 325 326 325 324 324 324 322 321 321 319 319 317 315 313 312 311 310 310 307 305 303 304 303 302 303 301 303 302
315 314 314 315 314 316 318 320 319 317 324 323 323 323 322 322 321 321 323 324 325 325 325 325 325 325 322 321 323 317 317 313 312 313 314 312 309 308 307 305 304 303 303 302 301 300 300 301 301
313 314 315 314 312 320 321 322 321 320 322 323 323 322 322 322 321 322 324 324 325 325 325 325 325 324 324 322 315 313 312 311 313 311 308 308 307 305 304 305 304 303 300 297 297 299 299 298 300
315 317 316 315 315 320 320 322 322 321 321 321 322 322 323 324 323 322 324 326 326 325 325 324 324 324 321 317 315 313 313 312 309 307 307 305 304 304 305 303 302 299 298 297 295 297 298 299 299
317 318 317 318 318 317 320 322 322 321 321 321 320 321 324 325 325 325 325 325 325 324 324 324 323 316 315 314 314 314 312 309 306 305 305 304 305 305 305 301 300 298 298 298 297 298 298 297 298
321 317 316 316 319 321 316 320 320 323 324 324 323 325 324 324 324 323 321 316 314 313 317 321 323 314 314 314 312 312 312 312 309 308 306 305 305 304 303 301 300 298 298 296 296 296 296 296 296
320 316 317 316 317 318 319 321 320 324 326 326 324 321 320 322 319 317 313 312 311 311 311 312 313 312 311 311 311 311 311 309 307 306 305 305 303 302 301 301 299 298 297 293 292 295 295 295 294
317 319 319 319 320 321 319 320 320 325 326 325 322 319 319 317 314 313 312 311 311 312 312 312 312 312 312 312 310 309 308 307 304 303 303 303 302 302 301 300 299 298 295 293 294 294 294 294 294
319 321 325 327 328 325 319 321 321 318 319 324 322 319 318 316 315 314 313 312 312 311 312 312 311 311 310 309 307 304 303 303 303 303 303 303 303 302 301 300 298 297 294 294 296 295 295 294 292
318 321 328 324 328 326 318 324 323 318 316 321 320 319 317 316 315 315 313 313 312 310 310 310 309 308 307 306 304 303 303 303 303 303 302 301 301 301 300 299 298 296 294 294 296 295 294 294 292
318 319 317 320 315 321 320 320 318 317 317 318 319 318 318 317 316 315 312 311 309 308 308 307 306 306 305 304 304 304 304 303 301 297 296 298 299 299 299 298 297 296 296 295 294 294 293 291 290
318 315 321 318 320 318 317 320 322 320 319 319 319 319 317 315 314 312 310 308 307 307 305 304 304 303 304 304 304 303 300 295 294 293 294 297 297 296 296 295 297 295 295 294 293 292 291 289 290
319 318 315 316 316 318 318 316 317 320 319 319 319 318 316 314 312 311 308 307 305 303 303 303 302 301 302 301 300 296 295 294 293 293 293 293 293 293 294 295 295 295 294 293 293 291 290 289 289
315 316 316 318 315 314 315 317 311 314 317 318 318 314 312 311 310 309 308 305 303 302 301 300 299 300 300 298 295 295 294 294 293 293 293 292 292 292 293 294 294 294 294 293 292 290 289 288 288

GFSSGP_925_thetae_033.txt.gz
Theta_e
315 317 315 317 323 326 328 329 329 341 343 342 341 342 345 348 351 350 340 343 342 340 337 335 330 331 332 333 333 332 331 327 324 321 322 319 316 316 315 314 315 319 322 324 324 316 316 316 319
317 313 314 321 323 325 326 327 342 343 341 339 339 340 340 345 344 344 342 343 342 340 338 337 332 332 333 334 332 330 325 324 322 321 318 313 312 313 313 317 321 322 326 325 320 313 312 314 316
314 313 320 321 323 324 325 336 342 338 336 338 339 335 335 343 342 342 341 342 342 339 339 338 333 333 334 334 330 327 325 322 321 318 313 312 312 314 319 321 323 325 326 324 318 314 312 311 311
315 315 319 322 324 324 324 338 336 334 334 334 334 337 334 336 338 341 342 342 342 340 340 336 334 334 335 332 328 325 321 321 318 314 313 314 316 320 321 323 324 324 320 316 315 314 314 313 313
316 319 319 323 324 323 324 336 336 337 336 333 334 336 333 331 332 340 342 342 341 340 340 336 334 335 334 330 326 322 321 319 316 315 314 318 319 319 319 318 317 317 316 316 315 315 315 315 314
317 318 321 323 324 327 326 335 337 334 330 330 330 335 335 334 333 335 339 341 340 338 337 338 335 334 332 327 324 321 319 317 317 314 318 319 318 318 317 317 317 316 316 315 314 314 314 314 313
317 319 320 322 330 332 328 333 336 332 331 329 330 332 340 339 336 338 334 336 336 337 337 337 336 334 331 328 323 320 318 318 317 318 319 319 319 318 318 317 318 317 317 316 315 315 313 312 312
318 320 321 324 331 334 330 331 331 329 330 333 333 338 336 341 340 333 330 328 335 337 338 336 336 334 334 331 323 319 319 319 320 320 320 319 319 319 320 323 318 318 317 317 316 315 311 314 315
319 320 321 329 333 334 333 332 330 327 327 329 335 333 337 341 338 335 336 336 339 338 335 335 332 332 331 329 321 321 320 320 321 322 322 325 326 326 327 320 317 316 317 316 316 313 311 315 315
318 318 320 328 331 335 331 328 329 330 329 332 335 337 341 341 338 338 338 338 338 338 334 333 332 331 328 324 325 325 326 327 328 328 327 329 328 329 326 319 317 316 316 317 315 313 315 316 315
318 320 322 322 327 328 328 328 325 327 331 330 334 343 340 339 340 339 339 339 338 337 330 331 331 329 324 324 325 326 329 329 329 330 331 329 328 329 328 323 322 322 319 320 317 317 316 316 315
319 319 321 324 327 328 325 327 324 329 329 330 336 341 340 340 340 339 338 338 335 331 330 329 328 326 325 324 325 328 329 330 330 330 331 330 329 328 326 322 321 321 319 318 317 317 316 315 314
320 320 320 326 325 324 327 326 328 329 328 330 339 341 340 338 337 337 334 331 330 328 325 325 325 326 327 327 329 330 331 332 332 332 331 328 328 326 325 322 320 319 318 317 317 316 314 313 314
320 320 322 323 324 324 326 327 329 328 329 333 336 337 335 334 332 330 329 328 326 325 325 325 325 327 329 330 331 331 331 331 330 329 328 322 320 320 323 321 319 318 317 315 312 312 313 313 313
318 319 320 321 322 325 326 324 324 327 329 331 331 331 328 327 326 326 326 325 326 326 327 326 328 329 331 331 327 325 324 322 320 322 323 323 322 323 319 318 316 314 311 311 313 312 312 312 310
318 318 319 319 319 324 325 323 323 325 329 330 329 328 327 325 323 323 323 324 327 328 328 328 329 330 329 325 321 319 318 321 321 322 322 321 318 317 317 315 313 311 312 312 312 311 309 308 307
318 319 318 318 319 321 324 325 322 324 327 330 330 331 330 328 325 323 323 323 326 330 330 330 330 329 325 321 321 321 318 319 320 319 318 316 314 313 312 313 312 312 312 311 309 308 307 306 305
319 319 318 318 319 321 321 320 321 325 325 328 330 330 330 328 327 327 326 324 325 329 332 331 330 327 323 322 323 320 320 319 316 315 315 313 313 314 313 313 313 311 310 309 307 306 304 303 302
319 318 318 319 320 319 319 318 320 324 326 327 329 330 330 329 329 329 328 327 328 331 332 331 330 328 325 325 324 322 321 317 316 314 314 314 313 312 312 312 311 309 308 307 306 304 302 302 301
318 318 320 319 319 321 318 319 323 324 326 326 327 329 330 330 331 330 330 330 330 332 331 330 330 328 327 326 324 322 319 318 317 315 314 313 312 312 310 310 309 308 306 304 303 303 302 301 300
318 319 320 320 320 320 323 322 324 325 327 328 328 328 328 330 331 332 331 331 332 331 330 330 329 328 327 325 322 320 320 318 316 314 313 312 311 310 308 308 306 305 304 302 303 302 301 300 300
321 321 321 322 322 321 323 321 323 326 327 328 329 330 329 330 331 332 332 331 331 330 330 330 329 327 325 321 320 319 318 317 317 315 314 312 310 308 307 306 305 304 304 303 303 301 301 300 299
324 321 322 322 321 323 323 321 326 327 326 327 328 329 330 331 332 332 331 332 331 330 329 328 326 323 321 320 319 319 318 318 316 314 313 311 310 308 306 305 305 304 303 303 302 302 301 299 299
322 322 323 323 322 324 321 323 323 328 326 327 329 330 331 332 332 331 329 327 326 327 327 326 321 320 319 318 318 318 317 315 313 311 309 306 305 304 304 304 304 303 302 302 302 301 299 299 299
322 323 325 325 324 324 323 323 321 322 325 326 330 331 332 331 329 326 323 321 321 322 324 323 319 318 318 317 317 315 313 310 307 307 305 305 304 303 302 302 301 301 301 300 300 300 299 298 298
323 322 325 323 321 321 324 320 322 324 323 326 329 329 330 328 326 322 320 319 319 319 319 318 318 317 317 315 313 310 307 306 306 306 304 302 301 301 300 299 299 299 299 298 298 298 298 298 298
322 322 323 324 328 325 318 320 325 324 324 325 329 328 329 326 323 321 320 319 319 319 319 318 317 316 315 311 308 307 306 305 304 302 301 300 300 299 297 297 297 296 296 297 297 297 298 297 297
323 322 322 322 324 322 319 318 323 324 323 325 328 328 327 325 323 322 320 320 319 319 318 318 316 314 310 308 307 306 306 303 301 300 300 299 298 297 297 296 296 296 296 296 296 297 296 296 296
324 322 320 322 323 322 318 320 318 320 322 323 326 327 326 325 323 322 321 320 319 318 317 315 312 309 308 307 307 304 303 301 300 300 299 298 297 297 296 295 296 296 295 295 296 296 296 295 294
322 323 323 323 321 321 326 319 318 319 320 322 324 325 325 324 323 323 321 320 319 317 315 313 310 307 307 306 303 303 301 300 300 299 298 297 297 296 295 295 296 295 295 295 295 295 294 294 293

GFSSGP_925_thetae_039.txt.gz
Theta_e
311 314 316 318 312 314 317 320 339 345 345 341 342 346 347 346 349 352 341 337 333 340 341 340 338 332 332 332 332 330 324 320 318 316 315 313 315 317 319 319 319 320 322 319 313 310 310 313 316
311 316 319 311 311 314 316 327 343 344 343 340 336 338 345 350 344 341 338 336 333 341 340 338 333 332 332 333 330 324 320 316 314 313 314 316 320 320 321 319 319 322 323 322 318 312 312 312 314
314 316 309 308 309 313 317 335 337 341 340 338 334 331 339 346 342 342 337 336 330 338 336 332 332 333 333 330 325 321 317 314 314 313 318 325 326 325 320 318 320 323 323 320 314 312 312 314 314
315 311 308 310 312 315 317 334 335 337 334 333 331 336 332 338 340 341 338 336 335 335 332 332 333 333 330 326 323 318 314 315 314 315 318 323 320 319 316 314 314 314 314 313 312 312 313 314 316
313 310 309 310 313 318 333 333 334 335 333 333 333 334 333 333 341 342 340 336 338 335 333 333 333 332 329 323 321 316 315 313 313 316 318 317 317 316 314 313 313 313 313 312 312 312 314 315 315
312 309 312 312 314 317 334 331 331 332 332 332 334 332 331 334 339 340 339 339 337 333 333 333 332 329 323 321 319 315 312 311 315 317 315 314 314 314 314 313 313 314 314 313 311 314 315 314 314
312 310 311 312 313 331 337 333 334 333 332 332 331 339 332 331 337 337 338 337 335 333 332 330 329 327 323 321 317 313 311 312 317 316 314 314 314 314 314 314 314 314 314 314 312 313 315 315 314
312 310 311 312 315 336 333 333 332 331 331 330 332 337 335 332 333 335 334 333 329 331 327 323 329 326 324 321 315 313 311 317 316 316 315 314 315 316 316 314 315 315 315 315 313 313 316 316 315
313 311 311 313 328 331 333 334 332 329 328 330 334 336 334 329 331 332 331 331 332 331 326 328 328 323 320 320 316 313 317 317 316 317 319 320 324 325 315 314 314 315 316 316 316 315 316 316 315
312 310 313 318 328 329 329 331 331 330 327 336 331 337 333 328 327 329 331 330 327 329 331 329 327 321 320 319 315 317 320 318 322 326 325 326 326 327 320 317 317 318 319 318 317 317 316 315 314
312 313 314 322 329 327 329 328 328 330 327 331 337 336 331 331 329 331 330 327 325 322 328 329 327 321 317 316 317 320 322 322 323 328 328 329 326 323 326 321 322 321 320 319 318 316 315 314 314
313 313 316 328 328 327 327 326 326 324 326 334 336 335 332 333 333 332 332 327 327 329 330 330 328 322 319 320 323 328 327 329 329 330 330 328 329 328 327 324 323 320 320 317 316 315 313 314 313
314 315 325 328 328 326 326 325 324 324 332 339 338 337 337 336 334 333 331 328 326 329 330 331 328 323 325 326 327 328 330 330 330 330 330 330 329 324 322 321 319 318 318 317 316 313 313 312 311
315 316 323 324 327 327 327 327 322 322 325 339 337 336 334 334 334 333 332 331 330 330 329 325 325 324 326 328 329 329 329 328 330 331 330 328 325 322 322 322 319 317 316 315 313 312 311 309 308
319 318 323 322 325 325 321 326 327 326 330 339 338 335 333 334 335 333 331 328 329 328 327 325 324 325 329 329 329 328 328 329 329 322 322 324 322 322 322 320 317 316 313 312 312 310 309 308 306
318 317 319 319 325 325 323 326 324 322 329 336 334 331 329 330 334 330 328 327 327 326 324 325 325 331 329 328 327 327 325 321 320 320 322 323 322 322 320 319 315 312 313 312 311 309 308 305 302
317 317 318 319 323 324 323 324 321 325 330 331 329 326 325 324 326 327 326 325 326 325 325 326 329 331 329 328 326 324 319 319 320 321 322 322 319 318 316 314 313 312 311 310 309 308 305 303 302
319 318 316 319 321 323 322 320 319 319 324 325 322 320 321 321 324 325 326 325 325 325 326 329 331 330 328 327 322 319 320 320 319 319 318 317 314 314 314 313 312 311 309 309 307 306 304 303 302
321 320 318 318 316 322 321 319 318 318 322 324 322 321 320 320 320 324 326 326 326 326 328 330 330 327 324 320 322 322 320 319 317 316 314 315 314 314 314 312 311 310 308 306 304 304 303 303 301
322 321 319 319 317 319 320 320 317 316 319 325 325 325 323 324 324 324 324 327 328 328 331 331 330 326 321 321 324 323 320 317 317 315 315 315 313 313 313 311 309 307 306 304 303 303 303 303 301
321 321 320 320 317 316 316 318 315 317 319 321 325 326 325 326 327 326 327 330 330 329 331 330 330 328 324 325 326 324 320 318 316 316 315 314 313 312 311 309 308 307 305 304 304 303 303 302 302
320 320 322 322 319 317 319 321 321 318 318 319 325 326 326 325 328 327 327 330 331 331 331 330 330 328 326 327 325 321 319 318 316 316 314 313 312 310 309 308 307 306 305 305 304 304 303 303 302
321 321 321 322 320 321 320 319 320 320 322 322 319 320 323 325 328 328 328 330 333 332 331 330 330 328 326 327 323 319 319 318 316 315 314 312 312 310 309 308 306 305 303 302 302 301 300 301 301
321 322 322 323 322 324 321 322 322 320 321 324 323 323 322 322 329 328 329 331 332 332 331 330 329 328 328 328 321 320 320 315 315 314 313 312 311 309 305 303 302 302 301 300 299 299 299 299 300
321 320 325 325 327 327 324 326 322 321 320 322 322 322 323 326 327 329 329 330 330 330 330 329 329 328 328 321 321 320 318 316 314 313 308 306 304 302 301 301 300 299 298 298 297 296 296 297 298
321 322 326 329 330 327 325 325 323 321 322 323 323 322 325 326 326 328 329 329 330 329 328 329 330 324 321 320 319 318 314 311 308 306 306 305 303 302 302 299 298 298 297 296 296 296 296 296 298
322 322 322 327 325 324 322 318 322 320 323 323 323 324 327 327 326 326 324 327 330 330 328 325 321 320 319 319 318 315 310 307 306 306 306 304 301 300 299 298 297 297 296 296 296 296 297 296 296
320 319 322 321 323 324 321 319 325 323 323 325 327 327 327 325 324 321 320 323 325 325 325 323 320 319 318 318 315 309 306 306 305 304 302 301 300 299 298 298 297 296 295 296 296 296 295 295 295
321 320 319 319 323 323 322 319 317 319 320 320 325 326 326 324 321 318 317 321 323 323 323 322 319 318 318 314 309 307 306 306 303 302 301 300 300 298 298 297 296 295 295 296 295 294 293 294 293
320 323 323 319 320 320 317 319 315 316 317 318 318 325 324 324 321 317 316 319 319 320 320 320 319 318 315 310 308 307 306 303 302 301 300 300 299 298 298 296 295 295 296 295 294 293 293 293 292

GFSSGP_925_thetae_042.txt.gz
Theta_e
312 312 315 316 311 310 315 316 330 343 343 339 343 346 348 346 348 346 337 336 340 343 342 340 337 332 332 333 331 325 320 316 313 311 311 313 318 322 319 319 320 320 321 318 313 313 315 316 320
311 315 318 308 308 311 311 315 339 342 340 337 333 341 346 350 342 338 338 337 341 342 341 339 334 331 332 333 328 323 323 317 313 317 315 319 322 322 317 316 317 319 318 315 314 315 315 316 317
314 315 310 307 305 309 312 328 338 340 339 335 332 333 341 346 341 338 338 339 340 341 340 336 332 332 334 331 325 322 315 312 314 321 325 326 325 320 315 314 314 314 315 313 314 315 315 316 315
315 309 306 307 309 311 314 327 337 340 334 330 332 335 333 334 340 339 337 338 338 339 338 334 333 333 332 327 320 315 313 313 318 323 324 327 321 314 313 313 313 312 312 313 314 314 315 315 315
312 305 308 308 309 315 333 332 333 334 332 333 331 332 335 335 338 336 335 338 339 338 334 332 333 332 326 322 316 313 313 314 316 316 316 317 313 312 312 312 312 312 312 313 315 315 315 315 315
310 305 310 311 316 336 334 333 331 332 330 331 331 331 331 336 338 337 336 337 337 334 332 332 330 325 322 317 313 313 312 314 315 315 315 313 312 312 312 312 313 312 311 313 315 315 315 315 314
311 308 310 311 313 332 336 332 333 333 330 333 330 335 330 333 337 337 336 333 330 332 332 328 325 322 319 315 313 311 311 316 315 313 312 312 312 312 312 313 313 314 313 312 315 316 315 315 315
309 308 310 310 312 328 331 332 332 331 331 329 330 335 331 331 334 334 332 329 327 325 324 325 324 322 319 319 313 310 315 315 313 312 312 312 312 313 313 314 314 314 314 312 316 316 315 315 314
311 311 311 312 320 331 331 332 328 329 330 336 337 334 331 331 332 331 331 328 326 323 323 322 323 321 324 319 313 314 317 315 314 314 314 316 317 314 313 313 314 316 315 315 315 316 315 314 313
309 310 312 312 326 328 330 331 329 329 334 335 332 329 330 331 330 330 330 329 326 325 322 321 324 326 322 317 314 317 317 316 318 320 321 325 323 317 314 315 316 317 317 315 316 315 314 314 313
311 312 312 321 325 325 327 326 327 329 327 331 334 329 326 329 330 328 329 327 326 325 324 329 325 325 321 316 316 318 317 321 323 323 325 326 326 319 317 317 317 319 318 317 316 314 314 313 312
312 312 313 324 326 326 327 325 327 326 326 329 333 330 327 330 330 326 326 326 326 327 330 328 326 322 316 315 319 318 319 323 327 327 326 327 326 324 319 321 320 319 319 315 314 314 313 312 311
312 313 321 326 326 324 325 325 323 330 335 334 331 330 329 330 329 326 323 324 324 323 327 329 325 319 316 317 320 322 323 325 327 330 330 329 328 327 324 322 320 318 315 314 314 313 312 312 310
317 318 324 325 325 325 326 325 319 324 336 335 333 331 331 331 332 330 327 325 325 325 328 330 324 319 318 320 324 327 327 329 330 330 329 328 325 323 320 319 316 314 315 314 314 312 310 308 306
318 323 324 325 325 322 321 323 324 327 335 337 337 336 336 333 333 330 328 326 325 328 330 330 323 321 324 325 327 328 330 331 330 329 329 327 324 322 320 317 316 314 313 313 312 310 309 307 305
317 320 323 323 323 323 320 322 324 322 333 335 335 336 335 333 332 331 330 326 327 328 328 329 325 323 326 327 329 330 329 329 328 321 322 325 322 321 320 318 316 314 313 312 311 309 308 305 302
315 316 318 324 322 322 322 321 320 321 330 335 334 332 334 333 332 330 330 330 329 328 326 325 325 328 330 330 329 328 326 322 320 320 321 322 322 321 319 316 313 313 312 310 309 307 305 303 302
318 318 317 317 322 322 322 321 319 323 327 334 331 324 329 332 332 331 328 328 327 328 325 325 328 329 328 327 326 323 319 319 319 321 322 321 319 316 315 313 312 310 309 308 306 304 303 303 302
320 320 321 317 318 322 322 318 318 319 327 328 327 321 324 328 328 328 325 325 326 324 324 326 329 328 327 326 323 320 319 319 319 319 320 317 314 314 313 312 310 309 308 306 304 303 303 302 301
321 322 320 317 316 321 319 318 316 316 323 326 325 321 321 323 323 324 323 324 324 325 325 327 329 328 327 326 323 320 320 319 318 316 314 314 314 314 313 311 310 308 307 305 304 303 303 302 301
320 321 319 319 317 314 318 317 316 316 317 322 323 322 320 321 322 320 323 324 325 327 327 328 329 329 328 324 321 322 322 318 316 314 314 314 313 313 312 311 309 308 306 305 304 303 303 302 302
319 318 320 320 319 318 315 317 317 316 316 323 324 322 321 321 322 322 325 324 326 328 328 328 329 328 325 321 321 323 321 316 316 315 315 313 313 312 312 309 307 306 305 304 304 303 302 301 302
320 320 320 320 321 318 319 316 316 317 318 316 321 323 322 322 323 324 326 326 327 328 328 328 329 328 327 323 324 324 320 318 316 315 314 313 312 311 309 308 306 305 304 302 301 300 299 299 300
320 321 320 322 320 321 321 319 318 317 319 319 319 320 322 322 324 324 326 329 328 328 329 329 329 329 327 324 326 324 321 318 316 315 313 312 311 310 308 306 305 303 301 299 298 297 297 296 296
320 319 321 321 323 322 323 322 320 318 318 319 320 318 319 322 325 324 327 329 329 329 329 329 329 328 328 325 326 324 320 318 317 315 313 312 309 305 302 301 300 299 298 297 296 296 296 296 296
321 319 321 323 324 324 323 325 322 319 318 318 319 317 320 321 326 327 328 329 330 330 329 329 329 328 328 327 328 322 319 318 316 315 313 309 303 301 300 299 298 297 296 296 295 295 296 296 296
321 321 319 324 321 320 323 319 320 320 323 321 321 322 324 324 327 328 327 328 328 328 329 329 329 328 327 322 319 318 315 314 313 307 304 302 301 300 299 297 298 298 296 295 295 296 296 295 294
320 317 321 320 323 326 320 319 322 322 325 324 323 321 325 324 324 324 324 326 328 329 328 328 328 328 322 318 315 313 310 307 306 305 303 303 301 300 299 299 298 297 295 295 296 295 294 294 293
319 318 318 318 318 321 321 316 313 320 322 323 322 322 325 324 323 323 322 326 328 328 327 325 325 322 318 317 316 311 306 305 305 303 301 300 300 300 300 299 297 296 295 295 295 294 294 293 293
318 320 319 316 318 318 315 317 315 315 316 321 324 324 323 324 322 320 321 322 323 325 322 320 320 320 318 317 311 307 306 306 303 302 301 301 301 300 299 298 296 295 295 295 295 294 293 293 292

GFSSGP_925_thetae_045.txt.gz
Theta_e
313 311 313 314 310 309 313 315 315 339 342 339 342 345 346 345 345 343 337 338 340 344 341 339 334 330 331 331 327 318 314 314 317 321 317 317 319 317 318 320 322 323 324 324 323 325 328 326 321
312 314 315 304 307 309 310 312 317 333 337 335 333 340 345 348 341 338 337 341 341 343 341 339 333 332 332 330 322 316 318 320 318 318 317 318 323 317 316 317 320 320 322 323 322 316 322 326 327
314 315 310 306 304 308 310 314 332 338 335 334 333 334 341 343 338 338 338 340 341 342 340 337 335 335 332 326 322 319 317 316 318 321 323 318 321 314 315 314 314 315 317 321 322 315 315 317 320
314 308 304 306 309 309 311 316 334 337 332 331 332 332 335 335 339 338 338 339 341 341 339 336 334 334 330 324 321 314 313 315 319 323 323 318 317 313 313 312 313 314 314 314 316 314 314 313 316
310 304 308 306 309 314 332 331 333 332 332 331 329 335 336 337 337 339 338 338 339 340 337 333 333 333 327 319 316 315 317 319 323 323 316 312 312 313 312 312 313 314 314 315 315 314 314 314 314
308 303 307 309 312 330 333 332 331 332 332 332 332 331 336 337 337 337 338 338 337 338 334 332 332 327 323 316 313 317 320 325 326 321 313 312 313 312 312 311 312 314 315 315 315 315 315 314 314
309 307 309 310 311 315 334 331 331 331 330 332 330 333 333 335 336 335 336 334 332 334 333 332 325 321 320 316 314 316 319 320 319 314 312 312 312 312 313 312 312 312 314 315 315 315 315 314 314
308 307 310 309 311 312 330 332 331 330 330 330 332 333 335 334 333 332 333 330 329 327 326 322 320 320 318 318 313 314 315 315 316 313 312 312 313 313 313 314 314 312 314 315 315 315 315 314 313
307 310 309 312 313 319 330 330 328 329 336 333 333 333 332 331 329 327 326 325 323 325 324 321 320 321 321 313 311 313 316 315 314 313 313 313 314 314 314 314 314 314 315 316 316 315 314 313 313
309 308 312 310 316 327 330 330 329 331 335 333 332 332 332 330 330 327 326 325 323 321 321 318 317 316 314 313 312 318 318 315 314 313 314 316 314 314 314 315 315 314 315 316 315 315 314 314 312
310 311 311 312 321 324 328 328 327 327 331 333 335 331 330 330 329 329 326 325 324 322 321 320 317 321 325 318 316 319 317 316 316 318 323 321 316 315 315 316 317 316 315 316 314 314 313 312 311
312 311 312 317 326 325 326 324 325 325 327 329 330 330 328 327 328 327 327 325 323 322 320 326 321 323 323 319 316 318 317 318 320 321 325 326 320 317 317 317 318 319 317 315 314 313 312 311 308
310 311 320 324 324 324 323 325 330 335 331 329 327 328 328 328 329 327 326 325 323 323 323 327 325 326 324 317 317 318 319 321 322 324 326 327 325 323 319 320 320 318 315 314 313 312 311 308 306
316 321 325 324 324 324 323 324 326 332 332 331 328 328 329 329 327 324 325 325 325 326 327 328 325 325 320 318 318 318 320 322 327 329 329 328 327 326 323 321 320 316 314 313 312 311 309 308 305
317 324 324 324 323 320 319 322 327 329 333 332 329 328 330 328 326 324 324 324 324 325 329 327 328 324 321 317 319 320 323 327 329 329 328 327 326 325 321 319 315 314 314 312 310 309 308 306 303
316 321 327 325 323 322 318 322 324 332 334 334 331 330 331 331 328 327 325 324 324 324 326 328 330 324 320 318 320 323 327 330 330 329 327 325 323 321 319 316 314 313 312 311 310 309 307 304 302
313 320 319 325 322 321 321 320 320 329 333 332 336 335 334 331 331 330 328 325 324 325 327 328 329 324 319 320 325 327 330 330 329 326 325 324 321 319 317 315 313 312 311 310 309 307 304 303 302
318 317 317 323 321 322 322 319 318 323 333 332 331 332 333 332 332 331 329 328 324 326 328 329 329 324 323 325 327 329 328 326 322 320 320 322 320 317 315 314 313 312 310 309 306 305 303 302 302
318 319 319 317 316 322 322 319 318 321 329 332 330 328 333 332 331 330 330 329 328 328 325 328 328 325 325 328 327 325 323 320 319 320 321 320 318 316 314 313 311 310 309 307 306 303 302 302 301
320 320 319 318 316 321 320 319 316 320 325 330 330 325 327 331 331 329 329 328 328 327 325 326 326 327 328 329 327 324 321 319 319 319 320 318 315 314 313 312 310 309 308 307 304 303 303 302 301
319 320 320 320 316 318 318 318 316 315 317 327 328 326 325 328 329 329 325 325 325 325 325 325 326 328 328 327 325 321 319 319 318 317 316 313 314 314 313 312 310 309 307 305 304 303 303 302 302
320 318 318 319 319 319 316 319 315 313 316 324 328 324 322 324 327 328 324 323 323 324 325 325 326 328 327 327 323 321 320 318 317 316 314 314 313 312 312 311 309 307 305 304 304 303 301 300 300
320 318 319 319 319 318 318 315 314 315 315 319 323 324 321 321 323 324 323 323 323 324 324 324 325 326 326 326 323 321 321 321 321 317 314 314 312 312 310 309 307 305 304 303 300 299 298 298 298
319 320 318 319 318 320 319 318 317 316 317 317 318 322 320 319 321 321 322 323 323 324 325 325 325 326 326 326 323 321 322 322 318 315 314 313 312 310 308 307 305 303 300 298 297 296 296 295 295
318 318 320 320 320 320 320 320 318 317 315 315 315 320 321 319 320 321 323 323 324 326 326 326 326 326 327 326 324 322 324 322 319 316 315 312 310 307 305 302 300 299 299 298 296 295 295 295 296
321 318 319 321 321 319 321 323 320 318 316 316 315 316 318 319 322 322 324 325 325 326 326 326 326 326 327 327 326 324 325 323 320 316 315 312 308 304 300 300 302 302 297 296 296 295 295 296 296
320 320 317 321 319 319 319 319 317 317 322 319 319 317 318 318 323 324 325 327 327 326 326 327 327 327 328 328 328 324 323 321 317 315 313 310 303 300 300 302 298 298 298 299 296 295 296 295 294
319 317 319 318 321 323 319 317 319 320 319 323 321 319 322 321 323 324 325 327 328 328 327 327 327 328 327 328 326 325 323 317 315 313 311 303 301 303 304 299 301 300 298 296 295 295 295 294 293
318 318 317 317 316 319 320 318 311 318 319 322 321 318 323 323 324 324 325 326 327 328 328 328 328 327 326 324 321 319 315 313 313 311 306 304 305 302 300 302 301 298 295 295 295 295 294 293 293
318 318 316 316 317 316 314 316 313 313 315 319 320 320 322 323 323 323 323 324 325 327 327 328 328 326 325 319 316 313 312 311 307 305 305 304 300 300 302 300 298 296 295 295 295 294 294 294 293

GFSSGP_925_thetae_051.txt.gz
Theta_e
313 311 312 311 315 315 316 316 314 318 328 341 341 344 344 342 344 346 337 339 342 340 340 337 337 336 328 323 318 314 313 317 322 316 322 323 323 322 322 324 328 334 333 332 331 334 331 321 314
311 316 312 310 314 315 315 313 317 326 334 333 336 340 343 345 339 338 338 338 341 340 339 338 337 335 331 321 317 321 329 328 322 322 323 324 324 323 322 327 332 333 330 328 332 333 327 315 315
313 313 316 313 311 314 315 313 320 337 334 334 337 337 341 341 338 338 337 340 341 339 339 337 335 333 323 318 321 327 326 323 323 324 324 325 324 323 321 324 325 324 328 333 332 327 321 315 315
313 311 308 313 312 311 312 313 331 334 332 332 332 340 337 337 338 339 339 341 341 339 338 335 334 326 321 323 323 321 320 321 323 322 325 326 326 324 320 318 319 319 321 327 326 322 315 315 314
308 309 314 311 310 310 312 328 333 334 333 334 333 339 339 337 339 339 341 338 340 339 337 335 330 322 319 324 316 313 317 320 322 323 325 325 325 323 319 315 314 314 316 317 316 316 317 315 314
312 309 314 313 312 312 322 332 332 333 332 331 335 338 337 337 337 337 339 338 338 338 337 334 328 325 326 322 322 316 318 321 320 324 324 323 321 318 316 315 314 314 314 314 314 313 314 313 311
314 313 312 311 312 312 322 331 331 331 333 332 332 337 336 336 332 336 336 336 336 336 336 332 330 327 327 320 325 324 324 320 321 324 318 317 316 315 315 315 314 314 314 314 314 312 311 311 311
311 313 312 312 313 313 324 332 330 330 336 333 332 336 338 333 329 332 332 332 332 328 331 325 321 317 314 317 325 328 322 321 321 318 315 314 314 314 314 314 314 314 314 314 313 313 313 312 311
307 314 314 313 313 315 330 332 330 332 334 333 333 332 332 328 327 326 323 322 324 322 322 319 315 314 315 317 326 326 323 320 317 315 312 312 313 313 315 317 315 314 314 314 313 313 312 311 310
313 314 315 313 312 315 328 329 332 334 334 333 334 332 329 327 326 326 324 320 319 318 318 319 320 320 317 317 322 321 322 316 314 313 312 312 312 312 313 315 315 314 314 313 312 311 311 311 308
309 315 313 313 312 321 326 329 327 334 335 334 335 334 329 326 325 325 324 320 318 318 317 315 315 314 313 314 314 317 319 314 313 313 313 314 314 314 312 315 315 315 314 312 312 312 311 309 307
313 312 312 312 320 325 328 327 328 331 330 330 333 331 329 327 325 325 324 323 320 319 318 318 313 312 316 316 317 320 318 315 314 314 314 314 315 315 313 314 315 314 314 313 313 311 309 306 304
312 312 315 318 323 325 325 327 329 333 332 331 331 330 330 328 325 324 323 321 319 318 319 317 315 315 315 313 319 318 314 314 314 315 315 315 315 315 315 315 314 314 313 313 312 310 308 306 303
315 324 324 324 324 324 327 331 330 332 331 331 330 330 329 329 327 324 323 321 319 318 319 318 317 318 319 324 318 319 316 314 315 318 320 316 315 315 316 317 316 314 313 313 312 309 308 306 303
317 325 326 326 324 323 324 325 328 331 331 332 331 329 328 327 327 326 324 322 321 320 320 318 318 318 317 325 319 318 316 316 317 322 324 325 320 316 317 317 316 314 313 312 310 309 308 305 301
320 321 326 325 324 320 319 323 331 331 331 332 331 328 328 328 327 325 325 323 322 322 321 322 322 320 321 325 321 316 317 317 319 320 322 324 325 324 318 318 317 315 312 311 310 309 306 303 302
316 320 322 326 324 321 321 321 330 333 331 331 331 330 330 330 327 326 325 323 322 321 322 323 325 325 324 325 322 316 318 318 321 325 326 326 326 325 323 319 317 313 311 311 310 307 305 303 302
320 319 318 322 323 323 323 323 329 334 333 333 332 331 331 330 329 325 325 324 322 322 323 325 327 327 326 324 322 318 319 319 322 325 325 326 325 324 322 318 315 312 311 310 308 306 303 302 302
317 319 318 317 320 320 322 323 322 334 334 334 332 331 332 331 329 325 324 324 323 323 324 325 327 327 328 325 322 320 321 321 324 326 324 323 323 321 319 316 314 312 311 310 307 305 303 303 302
319 320 320 318 317 319 320 321 319 330 335 333 333 331 331 331 331 328 326 325 324 323 324 324 326 327 327 326 321 321 320 321 325 325 324 322 320 320 317 315 314 312 310 307 305 304 303 302 301
319 320 319 319 318 317 319 320 319 318 328 332 331 332 331 332 332 331 329 327 326 324 324 324 325 326 327 325 321 320 322 324 324 322 320 319 318 318 317 314 313 311 308 306 304 303 303 304 301
321 318 318 319 320 321 316 322 317 317 320 325 333 332 333 332 332 332 331 330 329 327 325 324 325 325 326 326 322 321 323 323 322 320 319 319 317 317 315 313 311 309 307 306 304 303 303 301 301
321 317 319 319 320 320 318 319 320 315 316 319 324 331 331 330 331 332 331 331 330 328 326 325 324 325 326 326 324 322 323 323 321 321 319 317 316 314 313 311 310 307 306 305 304 302 299 300 298
318 319 317 318 320 323 319 319 321 319 318 317 317 322 328 329 328 330 330 330 329 328 327 326 325 325 325 325 324 324 322 322 321 319 317 315 315 313 312 310 308 307 306 304 300 299 301 296 295
318 319 323 324 324 325 320 321 323 320 318 318 319 317 322 328 328 328 329 329 328 326 325 325 325 325 325 324 324 324 324 321 322 319 318 315 312 311 311 310 307 306 304 301 300 300 300 299 297
320 320 325 323 324 321 319 322 320 318 317 319 318 315 315 325 326 326 327 328 328 326 325 325 325 326 325 324 324 324 324 321 320 320 320 316 313 312 310 308 307 306 304 300 301 303 299 297 295
320 322 318 321 319 325 321 319 318 317 318 321 321 318 317 319 322 324 324 325 326 325 325 325 325 325 324 324 324 324 323 322 320 320 320 318 313 311 310 308 304 302 301 300 303 300 296 294 295
319 318 322 320 324 324 319 319 319 318 320 318 321 322 321 319 319 319 321 322 323 324 324 325 325 325 325 324 324 323 321 321 320 321 320 317 312 310 308 301 301 301 299 303 299 296 295 295 295
320 320 317 318 319 322 322 321 317 317 318 319 319 321 321 323 321 321 321 322 323 323 324 324 325 325 325 325 324 323 323 322 321 320 317 314 311 306 301 301 302 301 302 299 296 296 297 295 295
318 321 320 325 321 319 320 320 315 315 313 314 318 319 321 323 323 322 323 324 324 324 324 325 325 325 325 324 325 324 323 321 317 315 314 310 307 304 302 302 301 302 299 296 297 299 296 296 295

GFSSGP_925_thetae_054.txt.gz
Theta_e
316 315 313 317 317 317 319 319 319 321 326 337 342 340 337 344 347 346 340 343 343 343 340 336 338 339 339 338 335 330 327 324 326 319 317 316 320 323 325 327 330 333 335 336 334 329 327 321 316
315 316 316 317 317 318 318 318 319 326 333 337 340 343 343 343 340 340 340 340 343 342 341 337 334 332 331 330 327 325 325 326 323 322 319 320 323 324 330 329 329 331 334 335 333 327 321 316 315
314 315 319 317 317 317 318 318 319 334 337 336 341 340 342 342 340 338 338 341 342 342 340 338 334 330 327 323 320 322 323 323 323 321 321 322 323 328 331 331 331 331 334 333 331 320 315 314 313
314 316 316 316 316 317 316 318 327 336 335 335 337 342 340 339 339 341 340 342 342 341 339 337 334 329 323 319 322 325 326 326 323 323 323 324 325 326 328 330 333 333 332 332 321 315 314 313 312
313 315 317 316 316 316 315 319 330 335 335 334 336 341 341 339 338 339 342 341 341 339 338 336 333 328 328 329 330 328 325 325 324 325 326 323 322 322 321 325 328 330 329 320 315 315 314 313 312
316 316 316 316 316 315 317 323 332 335 333 334 335 336 340 338 338 336 339 338 338 338 337 334 330 324 330 330 329 328 326 324 326 326 323 321 319 318 318 320 321 321 317 316 316 315 313 311 310
316 316 316 316 315 315 321 330 332 334 333 333 334 335 340 336 332 335 336 337 337 336 336 331 321 327 328 327 326 326 329 327 326 325 320 319 317 315 315 314 315 315 314 314 314 312 311 310 309
316 317 317 316 315 317 322 328 332 333 335 334 334 336 341 333 327 332 332 333 333 335 332 330 329 327 326 326 326 323 327 328 325 321 319 318 317 315 314 314 314 314 313 313 312 311 311 310 309
315 316 317 316 315 318 325 323 332 333 335 335 335 337 333 329 329 328 325 324 327 326 326 326 324 322 317 315 321 326 324 325 322 318 316 317 320 319 318 318 314 314 313 313 313 312 312 310 308
316 317 316 316 317 317 319 324 328 335 336 336 337 332 329 329 328 327 325 322 322 320 321 321 317 314 319 321 318 320 320 324 320 317 317 319 320 320 321 316 314 313 314 313 312 311 311 311 310
317 317 317 317 317 317 319 323 330 334 335 334 338 333 329 329 327 325 324 324 321 318 317 317 316 318 317 319 318 317 319 321 319 315 320 320 320 320 320 318 317 315 313 312 311 312 312 310 309
317 318 318 317 318 320 322 329 331 332 333 332 335 331 329 330 329 325 323 321 319 318 317 317 318 316 316 316 313 311 317 321 318 316 322 321 319 319 320 319 319 317 316 314 313 312 310 309 308
318 319 322 320 322 324 329 330 330 333 334 335 332 331 331 331 329 326 322 320 319 318 317 316 316 315 317 317 316 317 321 314 319 321 321 320 321 320 319 320 318 317 315 314 313 311 310 309 308
319 324 328 325 326 328 329 332 332 335 334 335 333 332 330 329 327 326 323 320 319 318 317 313 316 317 317 316 317 319 320 321 321 320 321 321 321 321 320 319 318 316 315 314 313 312 311 309 308
319 325 328 328 328 328 329 330 329 335 334 335 333 332 330 329 326 326 325 323 320 318 317 314 315 318 319 319 321 322 320 320 320 321 325 322 319 321 320 319 316 315 315 314 312 311 310 309 307
321 326 322 329 328 325 327 324 330 334 335 334 333 333 331 330 327 325 324 323 321 320 319 318 318 320 321 324 323 322 321 320 320 324 324 321 323 321 320 319 319 317 315 313 311 311 312 310 308
321 321 322 325 325 325 326 325 328 334 334 333 333 332 331 330 329 327 326 324 322 322 321 320 320 320 323 325 325 322 323 322 321 324 325 325 327 325 321 320 319 316 314 311 310 312 312 309 307
320 320 321 324 324 326 326 325 324 334 332 332 334 332 333 332 330 328 327 325 324 323 321 320 322 323 325 326 326 323 321 322 324 326 325 325 326 326 324 322 320 314 312 310 311 311 310 309 307
321 321 320 322 323 322 322 323 323 332 334 332 334 333 332 333 330 327 327 325 324 323 324 324 324 325 327 326 325 323 321 322 324 326 327 325 325 324 324 322 318 314 312 312 310 311 310 308 307
322 321 320 321 321 321 322 322 323 329 333 333 333 333 332 333 331 327 327 325 324 323 324 324 325 326 327 326 325 323 321 322 324 325 323 323 322 321 321 320 317 315 314 310 309 310 310 309 307
323 322 321 321 321 321 322 321 323 324 330 332 333 332 330 331 333 331 327 327 326 324 325 326 327 328 329 327 326 323 323 324 324 324 324 324 321 319 318 318 317 316 312 309 310 311 310 310 307
321 321 321 322 322 322 321 323 321 323 325 329 332 334 333 329 331 332 331 328 326 325 324 325 325 327 329 329 326 323 322 322 323 324 323 321 320 318 318 317 316 314 311 311 311 310 309 309 307
321 321 322 322 322 323 322 322 322 320 321 323 326 331 333 333 330 332 333 331 330 327 326 326 326 326 328 329 329 326 323 322 325 326 324 321 319 319 316 315 314 312 313 312 310 309 308 305 304
321 322 322 323 323 324 322 322 322 321 321 321 321 324 329 332 332 330 331 332 333 332 331 330 328 327 328 328 329 329 327 326 327 325 324 323 321 318 315 312 312 311 311 311 310 308 304 303 301
322 323 325 326 326 326 322 322 322 321 322 322 323 324 324 328 332 332 331 332 332 333 333 332 331 329 328 329 329 329 329 328 327 326 324 323 320 315 313 312 312 312 311 308 307 304 303 301 298
323 323 325 326 326 324 322 323 322 322 322 321 324 323 322 323 327 331 331 331 332 332 333 332 331 331 330 329 329 329 328 328 327 325 323 323 318 316 313 312 311 309 307 305 303 303 300 300 299
323 323 322 324 325 327 322 321 320 321 321 322 323 324 322 322 326 328 330 330 332 332 332 332 332 331 331 329 330 329 327 326 326 324 323 320 317 315 312 310 309 307 303 303 301 301 301 297 297
322 322 324 324 326 325 322 321 319 320 318 320 321 322 325 324 323 324 326 328 330 331 331 332 331 331 331 330 329 328 327 326 325 323 322 318 319 316 312 311 309 303 302 301 301 300 296 295 295
323 323 322 323 323 324 322 321 321 320 319 320 322 323 324 326 325 325 325 324 326 328 329 330 330 330 330 330 329 328 328 327 324 321 320 319 318 315 311 310 304 302 301 300 301 296 295 295 300
323 323 323 325 325 324 326 323 319 320 320 320 321 322 325 327 328 327 327 326 326 327 327 328 328 329 329 329 329 328 325 322 320 319 316 315 314 311 306 304 303 301 300 302 298 296 296 299 299

GFSSGP_925_thetae_057.txt.gz
Theta_e
316 319 318 317 319 319 319 320 320 322 324 327 332 329 329 328 340 346 340 344 345 343 341 341 342 342 341 340 338 336 331 327 324 318 318 321 325 328 332 334 335 334 334 330 329 328 325 317 316
321 317 317 319 319 318 319 319 321 321 327 332 334 335 337 337 341 343 341 344 345 343 340 340 341 342 341 339 337 333 329 325 319 316 321 324 325 326 330 333 334 334 333 330 328 328 324 316 315
318 317 320 320 318 318 318 320 321 325 331 331 332 336 339 341 341 341 340 341 344 343 338 340 340 340 339 337 334 330 327 319 318 324 325 324 330 328 329 333 334 334 332 329 328 324 315 314 313
317 318 318 317 317 318 318 319 321 327 330 332 332 337 341 341 341 342 341 343 344 343 338 337 338 338 336 333 331 329 323 319 321 326 324 328 333 333 333 332 334 333 331 328 323 314 313 313 312
316 318 318 319 318 318 318 318 321 327 331 332 332 334 343 341 341 341 344 342 344 341 339 337 335 334 333 332 332 328 322 322 326 327 325 329 332 332 332 333 333 330 326 319 314 313 312 312 309
318 317 317 317 317 317 318 320 323 330 332 333 333 334 344 341 338 336 342 341 339 340 338 335 332 331 330 330 330 329 326 327 328 325 326 328 329 333 333 332 330 323 316 315 314 313 311 309 309
318 319 318 318 317 317 319 327 328 331 332 331 333 334 343 338 331 333 336 335 337 337 335 333 329 328 329 329 328 328 329 330 329 325 324 323 324 327 328 327 323 316 316 315 313 311 310 309 308
318 318 318 317 317 319 324 326 330 331 332 334 334 336 340 335 329 329 332 332 335 334 332 329 325 328 327 327 326 325 326 329 328 323 321 319 319 320 320 318 316 316 315 313 311 311 310 309 307
318 317 318 318 317 319 322 324 328 332 332 332 337 340 336 333 330 329 328 327 329 329 327 326 326 324 321 320 322 322 325 327 325 321 319 318 316 316 319 318 314 314 313 312 312 312 311 309 306
318 318 318 318 318 319 319 321 324 332 333 334 339 333 331 332 334 332 329 328 325 323 325 326 324 325 324 326 323 321 322 324 324 320 321 320 320 320 321 316 314 313 313 313 313 313 313 313 312
318 318 318 318 318 319 319 320 325 331 332 326 337 334 331 330 329 330 326 324 323 322 323 320 318 317 315 315 314 315 319 323 320 320 321 320 321 322 320 318 316 313 313 312 312 314 315 314 313
318 318 318 319 319 321 323 325 329 329 334 333 337 333 331 331 329 328 325 322 320 319 317 317 318 319 322 322 321 322 322 322 320 321 321 322 322 322 321 318 318 317 317 315 317 316 315 313 311
319 319 320 322 321 323 326 329 329 331 333 336 334 333 333 332 331 327 323 320 318 318 318 318 319 319 316 313 313 312 316 315 314 319 322 320 321 322 320 320 320 319 319 318 317 316 314 313 311
321 320 323 324 322 324 327 328 328 332 336 335 334 333 331 331 329 324 321 319 319 317 317 316 316 316 315 314 314 316 317 317 319 321 322 321 322 321 321 322 321 320 319 318 317 317 315 314 312
320 321 325 326 325 326 327 327 327 334 336 335 333 333 331 329 328 326 322 320 319 317 315 316 315 316 316 317 316 315 319 321 321 321 321 322 323 324 322 321 321 320 319 318 317 316 315 314 311
320 322 324 327 327 325 325 330 325 333 333 333 331 329 332 330 328 327 325 323 320 318 316 315 316 316 316 316 315 320 321 319 317 319 323 324 323 323 322 322 321 320 319 318 317 316 316 315 312
320 321 324 327 328 326 325 328 329 331 331 331 331 330 331 333 329 326 326 324 321 320 318 317 318 319 319 318 319 322 322 321 320 321 325 327 324 324 323 322 322 321 320 318 315 316 316 315 312
319 322 322 326 326 323 325 326 325 330 330 331 332 332 332 333 331 327 325 324 323 320 318 320 320 319 321 323 323 322 322 323 320 321 325 327 328 329 325 324 324 322 319 316 315 316 314 315 312
320 321 321 325 326 325 323 322 324 329 331 331 333 332 333 334 330 328 326 324 323 322 322 322 321 322 322 322 322 322 321 321 322 322 326 329 327 328 328 327 325 322 318 317 315 314 313 312 311
320 321 321 321 322 322 322 323 323 326 331 330 332 334 331 332 331 329 327 326 325 324 322 322 321 321 322 321 321 321 321 320 322 323 325 328 328 327 327 327 325 322 319 317 315 313 313 313 312
322 322 321 321 323 322 322 322 323 323 329 330 330 332 331 332 332 330 328 327 326 325 324 323 324 324 324 324 323 323 321 320 321 323 325 327 325 324 324 324 323 321 319 318 315 314 312 313 312
323 321 321 322 322 322 324 324 325 323 326 329 330 331 331 330 332 331 329 328 327 325 326 325 325 325 326 327 326 325 323 322 321 324 325 326 323 322 322 322 321 321 320 317 314 312 313 314 313
322 322 322 322 322 323 324 322 324 322 321 324 328 330 330 329 331 331 330 329 328 327 326 326 327 327 328 328 327 326 325 323 323 324 325 326 323 322 323 320 320 320 318 314 313 313 314 313 312
321 322 322 323 324 325 323 324 324 325 321 322 322 327 329 331 329 331 330 329 329 328 328 327 327 327 327 327 329 328 327 326 323 324 329 326 324 322 322 321 320 319 315 312 313 314 313 310 306
322 323 326 329 326 326 323 323 323 324 322 322 322 323 326 329 331 329 331 332 331 330 329 329 328 328 328 328 329 329 329 329 328 327 329 327 325 324 322 320 316 315 313 313 314 313 311 306 305
324 323 327 330 330 327 325 323 323 322 321 321 322 324 325 326 329 331 330 330 332 332 333 332 331 331 329 329 330 330 331 331 331 329 329 328 327 325 321 317 315 313 313 313 312 310 306 303 301
322 325 323 326 327 328 325 322 323 321 322 321 322 324 325 325 326 329 331 330 331 332 334 335 334 333 332 331 331 331 330 332 331 330 329 327 325 323 318 316 314 312 312 311 309 305 302 301 300
322 324 325 325 330 330 324 323 322 321 320 319 320 322 325 325 325 327 329 330 330 332 333 335 336 334 333 332 331 332 332 331 329 327 326 325 323 319 316 315 313 311 311 306 304 301 301 299 297
323 325 324 324 325 329 328 323 322 321 320 319 320 321 322 326 327 326 327 328 330 331 333 335 335 335 334 333 333 331 330 329 328 327 325 323 320 316 313 313 311 310 305 302 301 302 299 298 297
323 323 324 327 327 327 326 328 322 321 321 321 321 321 323 325 326 328 327 326 328 330 332 333 333 334 333 333 332 331 329 328 326 324 323 321 319 314 312 310 307 305 303 302 301 299 298 297 298

GFSSGP_925_thetae_060.txt.gz
Theta_e
314 315 319 321 318 319 319 318 319 320 327 331 333 332 334 332 332 340 333 328 329 332 342 344 343 343 339 339 339 335 330 327 325 320 320 323 325 335 336 335 332 331 330 329 328 327 323 314 315
323 322 321 318 318 319 318 319 320 322 331 330 328 331 328 327 339 342 337 329 327 328 341 344 344 342 340 339 337 333 329 326 320 318 320 326 330 335 335 333 331 330 330 329 328 325 314 313 316
318 320 319 320 320 318 319 319 320 321 327 329 330 327 333 340 342 342 342 341 340 341 341 342 343 342 340 339 335 332 329 322 318 320 323 326 332 334 334 333 330 330 330 329 326 314 313 313 316
318 318 317 317 317 318 318 319 320 321 324 328 328 335 327 329 341 343 343 342 344 341 341 340 342 342 340 337 335 332 325 320 320 322 328 328 330 333 334 333 329 329 328 325 315 313 313 311 312
318 317 318 318 318 318 319 319 318 319 328 330 329 333 331 326 339 340 343 343 342 339 340 338 341 340 338 337 334 328 321 322 323 327 330 332 330 332 333 333 328 325 321 315 313 312 310 308 308
319 318 317 317 318 319 319 319 320 322 329 329 329 328 328 336 334 337 338 340 341 338 338 339 337 337 336 334 332 325 325 328 328 331 333 332 332 333 333 331 324 318 315 314 312 309 309 307 306
317 318 318 318 318 319 321 323 323 328 329 330 327 331 337 333 330 332 335 336 337 335 334 327 332 333 333 332 329 329 329 330 331 333 334 333 332 333 333 328 318 316 315 313 310 309 308 307 305
318 317 317 318 318 319 323 323 325 326 330 326 327 335 332 329 329 330 332 336 334 332 330 329 326 325 326 325 323 325 330 330 330 330 333 334 334 333 329 320 316 315 313 311 310 310 309 306 308
317 317 318 319 320 319 321 321 324 323 330 330 336 337 334 332 331 331 328 331 332 331 330 329 327 327 324 320 319 322 323 327 327 325 327 329 329 326 322 317 316 314 312 312 312 311 310 309 308
317 317 318 319 318 318 319 320 321 326 329 327 334 332 332 333 333 331 329 325 326 328 327 327 326 323 323 321 316 316 318 323 323 321 320 319 322 320 319 316 315 313 313 313 313 314 313 313 311
318 318 318 318 319 319 318 319 320 322 326 323 328 334 332 331 330 328 327 326 322 323 328 326 325 322 320 322 320 320 319 320 320 321 320 319 322 316 314 314 313 313 313 313 314 315 315 314 312
318 318 318 318 319 319 320 322 325 329 326 322 326 332 331 331 330 326 323 321 320 319 320 322 321 321 321 322 317 316 319 321 321 321 323 322 321 318 314 314 313 313 314 314 316 316 315 313 311
319 319 318 319 321 319 320 323 329 332 329 329 333 333 332 332 327 324 322 320 319 318 319 319 319 318 319 317 316 317 319 320 321 320 322 321 321 321 316 317 317 316 317 316 317 316 314 313 311
319 320 319 324 326 325 322 327 327 327 325 334 333 333 332 329 325 322 320 319 318 318 318 319 319 318 317 318 319 317 316 315 316 321 321 320 320 322 318 320 319 319 319 318 318 316 315 314 312
320 319 320 324 323 323 326 327 327 325 326 331 333 332 330 329 325 323 320 318 318 317 317 317 316 317 319 318 315 313 312 313 313 321 322 321 321 321 322 323 322 321 320 319 318 317 315 314 312
320 319 321 326 323 323 327 328 327 325 325 331 331 331 331 328 327 323 321 319 318 317 316 316 317 316 316 316 313 314 315 313 317 322 321 320 323 322 322 322 321 321 319 318 318 317 316 315 313
319 320 321 326 325 326 328 328 328 325 326 330 328 328 332 330 328 325 323 320 317 317 315 317 316 315 314 313 313 312 315 318 320 321 322 323 322 323 321 323 322 321 319 319 318 317 317 316 314
320 320 322 324 327 327 325 325 329 331 331 331 329 324 332 331 328 326 324 322 319 318 317 318 317 315 315 315 315 317 320 321 320 319 322 325 325 322 323 323 322 321 320 320 318 316 316 316 315
321 320 321 325 324 324 326 324 326 327 329 329 332 329 330 333 329 326 325 323 322 320 319 319 319 320 318 316 319 320 323 323 321 321 320 323 324 326 326 324 324 323 322 320 317 316 316 315 313
321 318 319 321 324 325 323 322 323 329 330 328 330 332 331 331 330 327 325 324 321 320 320 320 321 320 321 321 321 323 322 322 322 320 321 324 327 326 326 326 326 325 322 319 317 315 315 314 312
320 321 320 321 323 323 322 321 322 323 326 327 330 333 329 332 331 329 326 325 322 321 321 322 322 321 322 324 323 323 321 321 320 323 322 325 325 326 327 327 326 325 324 321 317 316 314 313 313
323 322 321 320 323 322 323 324 325 324 325 327 329 332 331 330 331 329 328 326 326 324 323 323 322 323 323 322 323 322 323 323 322 323 324 326 325 326 326 325 324 323 323 321 319 317 314 314 313
322 322 323 322 321 322 322 325 325 324 324 326 328 329 332 330 331 331 329 327 327 327 325 323 323 323 324 324 325 325 324 322 321 321 324 326 327 326 324 323 322 321 322 321 320 317 315 313 314
322 322 322 323 322 326 323 324 324 325 325 324 327 327 330 330 332 331 329 329 328 327 327 326 326 326 326 325 325 328 328 326 324 324 324 326 326 325 323 322 322 322 322 321 318 316 314 312 313
322 323 326 333 331 330 323 323 326 326 324 325 324 326 328 330 330 331 331 330 329 328 327 328 327 328 328 328 330 329 327 329 325 325 326 326 326 325 324 322 321 321 320 320 318 313 312 311 307
322 323 328 329 335 333 329 326 323 325 324 323 321 322 326 328 330 329 331 330 329 330 329 328 328 328 328 329 329 329 330 328 329 327 327 326 327 326 324 323 322 320 319 318 316 313 312 312 308
321 326 324 327 330 333 330 327 324 323 321 321 322 323 325 326 328 331 328 331 331 330 331 331 330 329 329 329 329 329 328 325 330 329 329 329 327 327 324 323 321 319 316 314 313 312 312 310 305
320 320 327 326 332 332 325 323 325 322 321 319 320 324 326 325 326 327 330 330 332 332 332 332 331 331 331 331 331 330 330 329 329 330 331 329 327 325 323 321 320 317 314 311 311 311 307 304 302
320 322 325 326 327 331 333 328 324 324 321 320 321 322 323 326 327 326 328 330 331 333 334 335 335 334 335 334 333 331 331 332 331 329 328 327 325 323 322 320 316 314 311 310 309 305 303 302 301
321 323 323 330 327 330 332 328 323 324 323 323 322 321 324 325 326 327 327 327 331 332 333 336 337 336 336 335 334 332 332 331 329 328 327 325 323 321 319 315 312 310 309 306 305 302 302 301 301

GFSSGP_925_thetae_063.txt.gz
Theta_e
313 313 313 319 316 311 312 314 315 325 330 330 332 329 330 331 339 342 331 332 337 335 336 338 342 339 339 337 334 330 327 325 322 319 321 327 334 334 333 331 330 330 329 328 326 323 322 321 321
316 322 319 317 312 311 313 314 316 327 330 330 330 329 328 343 332 333 331 331 331 329 327 327 331 339 339 339 334 330 327 325 321 319 326 334 335 333 331 328 329 329 329 327 323 317 317 320 321
316 321 317 312 312 314 314 315 315 320 328 328 327 326 337 337 331 330 333 337 337 329 330 330 335 340 338 336 333 329 326 322 319 321 334 334 334 332 328 328 328 328 328 324 314 314 317 320 320
318 314 311 312 313 314 315 315 317 319 326 327 330 334 331 326 339 339 338 340 337 326 338 339 339 340 339 338 334 330 324 318 319 323 334 334 333 331 327 327 327 325 324 315 313 312 317 318 318
319 312 312 313 313 314 315 316 324 329 331 328 329 333 329 334 335 336 338 341 341 341 341 339 340 341 339 336 334 328 322 321 323 327 334 333 333 331 327 324 322 316 314 313 311 308 310 316 316
315 311 313 314 314 315 317 319 327 329 328 329 329 329 329 330 333 334 336 340 339 339 339 338 339 340 338 336 333 327 326 326 327 329 333 333 333 330 326 321 316 314 313 311 309 307 306 314 315
313 311 312 312 314 317 321 321 328 329 327 327 325 327 324 323 330 333 336 338 338 334 333 332 324 328 327 334 331 330 329 328 330 329 331 333 333 331 324 318 315 314 312 309 308 306 304 312 315
312 310 311 313 314 315 321 322 325 327 324 326 326 327 329 328 330 334 335 336 335 331 329 328 329 327 323 324 322 323 324 329 331 331 332 333 333 330 321 316 314 312 310 309 308 306 309 312 312
314 311 312 313 316 317 319 319 320 325 330 330 331 334 331 330 330 332 332 332 331 330 328 328 327 325 324 323 321 320 324 330 329 331 331 332 331 326 318 315 314 311 311 311 309 309 309 309 309
312 310 312 314 314 315 316 316 320 329 328 326 327 328 332 331 331 329 328 326 329 329 328 326 326 325 323 320 320 319 323 326 329 329 329 329 328 320 316 315 312 313 314 313 312 312 312 311 310
313 312 314 314 314 316 315 322 326 326 324 324 328 332 332 330 328 328 326 324 323 327 328 326 324 322 321 320 319 318 317 320 325 325 325 325 321 317 315 314 313 313 314 314 314 315 312 311 310
315 314 315 314 318 317 317 325 327 326 327 326 326 330 330 329 327 325 323 321 321 323 323 324 323 320 320 319 318 316 318 322 321 320 321 319 317 316 315 313 313 314 314 316 316 315 314 312 310
316 316 317 319 320 322 323 326 328 326 323 323 327 330 331 328 325 323 321 320 320 320 320 321 322 320 318 317 317 321 321 321 321 320 322 320 314 314 314 314 314 315 315 316 317 316 314 311 309
317 317 316 319 322 322 325 325 324 325 326 328 331 332 327 324 322 321 320 319 319 319 318 320 320 321 320 319 319 316 319 321 322 320 320 322 320 315 315 315 315 316 317 317 317 317 314 312 312
319 318 317 321 321 321 323 326 325 326 326 330 327 330 326 323 320 320 319 319 318 318 318 317 319 319 318 316 318 320 321 319 318 317 321 322 321 318 317 320 319 319 319 318 318 316 315 313 312
318 317 317 318 322 322 323 325 326 324 326 329 329 329 328 324 321 319 319 318 318 318 318 317 317 316 316 316 318 319 317 315 317 315 320 320 320 320 321 323 322 321 319 319 318 317 315 314 312
317 318 317 321 322 323 324 325 326 325 327 327 324 325 327 325 320 319 318 317 317 318 318 318 317 316 315 314 316 314 314 313 314 319 321 319 321 322 321 322 322 322 320 319 318 317 316 315 314
319 319 317 322 323 323 325 324 324 325 326 327 326 325 328 326 322 320 318 317 316 317 317 317 318 317 316 316 315 314 312 313 314 317 321 320 319 322 323 322 323 322 320 319 319 317 317 316 316
319 319 318 321 323 325 324 323 326 326 328 327 327 324 329 327 324 322 318 317 316 315 317 316 316 316 316 316 314 314 315 316 315 318 319 321 322 322 323 322 323 322 322 320 319 319 317 316 316
321 320 317 319 323 322 321 320 326 328 329 325 328 329 330 328 325 323 320 318 317 316 317 317 316 315 315 315 314 314 316 318 316 317 320 321 324 324 324 322 323 323 323 321 320 319 317 316 316
320 319 319 319 322 321 321 319 326 327 325 324 326 326 328 326 326 324 322 320 318 318 318 318 316 315 315 314 314 317 318 321 322 322 321 321 321 323 324 324 322 323 324 322 321 320 316 316 315
320 320 322 321 321 321 319 321 322 325 327 327 329 328 328 327 326 324 323 320 319 318 318 318 319 318 316 317 317 319 321 321 321 319 320 320 323 324 326 325 324 323 324 324 323 319 317 316 314
320 322 322 323 321 319 319 321 321 322 321 324 331 329 327 329 326 324 322 320 319 319 319 319 319 320 318 320 322 322 322 321 321 320 321 322 323 324 325 325 326 325 325 324 322 319 317 316 315
320 321 322 321 321 322 320 321 321 321 322 322 326 330 328 328 328 325 324 322 320 319 320 321 321 320 319 320 322 323 322 322 321 321 320 321 322 324 325 325 325 325 323 322 322 320 319 316 316
320 321 323 326 326 323 325 328 322 322 322 323 325 331 327 326 329 327 325 324 324 321 321 321 321 321 320 322 322 322 325 323 323 322 322 324 325 326 326 326 324 323 322 322 322 320 317 316 313
321 321 325 328 329 327 328 330 323 322 321 321 320 321 328 327 328 328 327 325 325 325 324 323 322 322 322 322 323 324 324 327 326 324 322 323 324 325 325 325 324 322 321 321 320 318 316 313 312
322 322 321 325 329 328 328 325 323 322 322 319 317 318 326 328 328 328 327 327 326 326 326 325 323 323 324 325 326 327 325 326 328 327 325 326 326 325 326 325 323 322 321 320 318 316 313 312 311
320 319 325 326 332 332 328 327 327 325 321 318 318 321 321 321 326 329 328 327 327 327 326 326 326 326 326 326 327 327 330 329 328 328 328 326 327 326 326 324 323 322 319 317 315 313 312 311 307
320 320 319 324 327 327 326 325 323 323 323 317 317 317 321 322 321 322 326 328 328 328 328 327 326 327 327 327 327 328 328 328 328 326 327 325 321 325 326 325 322 319 317 314 313 312 310 306 305
319 320 319 324 328 328 324 324 321 320 319 318 316 318 318 320 321 322 321 326 329 328 328 329 328 328 328 328 328 329 328 329 329 327 326 325 324 323 322 321 319 316 314 312 311 309 305 304 303

GFSSGP_925_thetae_066.txt.gz
Theta_e
313 314 316 318 312 308 311 313 314 314 323 328 330 327 333 337 341 343 337 340 342 343 343 341 338 332 335 335 329 328 325 323 323 326 333 332 329 329 328 328 328 327 327 328 330 329 329 329 328
315 322 319 312 311 311 310 311 312 313 321 329 328 329 338 341 330 332 332 339 341 341 340 342 340 334 333 336 330 327 324 321 322 329 333 331 329 327 325 324 324 324 325 327 329 328 324 320 322
314 322 316 313 308 311 311 312 312 326 327 328 326 328 334 334 333 332 335 336 336 334 333 338 341 334 335 332 334 328 326 325 331 334 334 332 329 324 322 321 320 321 323 326 327 322 318 315 320
317 311 309 311 312 312 314 315 314 326 328 326 329 332 326 331 337 337 336 339 337 332 332 330 330 335 334 330 330 332 323 322 332 334 334 332 327 322 321 321 321 322 322 321 319 318 315 319 320
318 307 310 311 311 311 313 313 327 329 329 328 328 330 329 333 331 332 334 339 335 332 337 337 334 332 335 337 334 327 322 324 334 334 334 331 324 322 322 322 318 315 313 313 317 317 315 321 320
314 308 312 313 314 313 312 321 329 328 328 327 328 328 328 330 325 331 334 340 338 337 338 335 333 325 323 337 333 325 317 318 333 334 333 330 326 324 321 316 314 313 309 308 311 315 313 313 320
314 309 311 311 312 311 315 323 326 325 326 327 326 327 324 324 328 332 333 336 338 337 334 333 326 327 322 320 334 330 323 330 333 333 332 330 326 323 318 314 313 309 308 306 306 312 313 310 315
309 309 312 310 312 312 314 322 327 325 328 325 325 330 330 327 331 332 331 332 332 331 329 328 326 325 322 321 324 326 324 329 332 331 332 329 325 321 315 313 310 309 308 306 306 312 311 310 310
310 311 310 310 313 314 314 318 326 326 329 329 330 331 329 330 331 333 331 331 330 328 328 327 327 327 323 322 321 321 324 328 331 332 332 329 324 317 314 312 310 309 308 307 310 310 310 309 308
310 308 311 311 312 313 324 324 328 327 324 326 326 330 330 331 330 330 329 328 329 328 326 326 326 324 323 323 321 317 318 325 329 330 330 329 320 315 313 311 311 310 310 310 310 310 309 309 308
312 312 314 313 312 314 323 325 325 323 324 323 324 331 331 332 330 329 327 324 325 328 326 324 323 324 323 321 320 322 321 322 324 327 329 327 317 315 313 311 314 312 313 313 314 313 311 309 307
314 313 313 313 319 321 322 324 326 324 325 326 320 330 330 329 328 327 325 323 324 327 326 324 323 322 322 322 321 319 326 327 328 327 327 322 316 315 312 313 314 314 315 315 315 314 312 309 308
314 314 314 314 319 320 325 328 325 325 326 326 329 330 330 329 326 324 323 321 322 323 323 323 322 321 321 320 322 325 326 327 327 326 325 318 315 314 313 313 315 315 316 316 316 314 311 309 307
316 316 316 315 319 321 323 325 324 325 323 328 332 330 328 325 322 322 320 320 320 320 322 321 321 320 319 318 319 320 321 322 322 321 319 316 315 314 313 314 315 315 316 317 317 316 314 311 309
316 317 315 315 319 320 322 326 324 324 328 331 333 331 325 323 321 321 321 319 319 319 319 319 320 319 319 319 316 321 322 320 321 320 316 315 314 314 315 314 315 316 316 317 317 316 314 313 311
316 316 316 315 319 319 319 320 324 322 328 329 329 330 326 322 320 320 320 319 318 318 319 320 319 319 318 319 321 321 322 321 321 322 321 320 317 315 315 316 317 317 319 317 317 317 315 314 312
315 316 317 317 318 321 322 322 325 322 324 328 327 328 325 322 319 319 319 319 318 317 318 318 318 318 318 318 319 321 318 317 320 320 321 321 320 319 319 321 322 320 320 318 318 317 316 314 313
315 317 316 315 318 322 324 324 324 323 325 325 321 323 325 323 320 318 318 318 318 318 318 317 316 317 318 318 316 319 317 318 317 315 315 318 319 321 322 322 322 322 321 319 318 318 316 316 315
316 317 317 316 319 322 322 322 323 324 323 326 323 323 325 323 320 318 317 317 317 318 317 317 316 315 316 317 318 316 315 314 314 317 319 321 320 321 323 321 321 321 321 320 319 318 317 317 316
317 318 318 316 321 322 320 319 320 323 324 326 326 323 326 324 321 319 317 316 316 317 317 316 316 315 315 316 315 315 314 313 314 315 318 319 320 320 321 322 322 322 322 321 320 319 318 317 316
317 318 318 317 317 319 320 319 326 325 326 324 324 324 327 325 322 320 317 316 315 315 316 316 317 316 315 315 315 314 313 313 313 313 313 315 320 321 322 322 322 321 323 322 321 320 319 318 316
319 318 319 320 320 321 318 319 322 327 326 324 324 327 328 326 324 321 318 316 315 315 316 316 316 316 316 316 315 314 314 315 315 315 315 315 319 322 322 322 323 322 322 323 323 322 320 319 316
319 319 320 321 321 318 319 318 317 322 326 325 324 325 329 326 325 322 320 318 316 315 316 317 316 315 315 316 315 314 315 316 318 319 317 316 318 321 322 323 323 323 324 323 323 323 320 320 316
318 319 320 320 319 321 320 319 317 318 320 322 325 325 327 326 325 324 321 320 318 317 317 317 316 315 315 315 314 314 316 319 320 320 320 321 320 319 320 323 324 325 325 324 324 324 322 320 317
318 319 321 323 323 323 320 324 322 318 318 321 328 327 326 327 325 324 322 319 318 317 317 317 317 317 316 315 316 316 318 319 320 321 320 319 319 321 322 325 325 325 325 325 324 322 321 319 317
318 319 322 326 324 323 324 327 324 320 319 319 328 328 326 328 326 323 322 320 319 317 317 317 317 317 317 317 317 318 319 321 321 321 320 320 320 320 320 321 323 324 325 323 322 321 321 320 317
320 320 320 323 326 325 323 323 321 320 321 319 321 328 326 325 327 326 322 321 320 318 317 318 318 318 318 317 318 319 320 321 322 322 321 321 321 322 321 323 324 324 323 322 321 320 320 317 315
319 319 322 323 328 329 326 325 325 322 321 317 315 322 322 325 323 327 325 323 322 320 319 318 319 319 318 318 318 319 320 321 323 325 324 322 322 323 324 324 324 324 323 321 320 319 317 314 313
318 318 318 321 326 327 325 323 320 321 319 319 315 318 318 324 325 325 327 326 324 323 323 321 320 321 320 320 320 320 322 323 324 325 325 325 325 324 322 323 324 324 322 320 318 316 315 312 310
317 319 318 321 325 324 322 324 319 319 319 318 315 316 317 321 325 325 326 327 326 325 325 324 323 322 322 322 322 324 325 326 327 326 326 323 321 323 322 323 323 323 320 318 316 313 311 309 305

GFSSGP_925_thetae_069.txt.gz
Theta_e
313 314 315 315 309 308 312 311 312 313 313 327 327 328 335 335 339 338 335 336 340 343 342 338 329 328 330 331 330 331 329 329 329 332 334 333 333 330 329 329 329 331 331 331 332 330 331 329 328
319 319 317 307 310 309 308 309 312 312 318 327 327 331 337 337 331 333 334 339 340 344 342 339 333 329 327 328 330 328 335 335 336 335 334 333 332 331 329 327 329 330 331 331 330 329 330 329 328
317 321 313 310 306 310 310 311 312 324 326 328 327 329 333 334 332 331 334 334 339 342 343 341 337 330 328 329 330 328 330 334 334 334 333 332 331 328 326 326 329 330 330 329 326 322 322 323 327
316 310 306 311 312 311 312 313 312 317 326 325 328 331 326 330 336 335 334 335 338 339 340 341 339 335 334 330 329 329 327 335 333 332 332 331 329 326 322 323 327 329 329 326 320 316 322 324 324
316 306 309 310 311 311 310 311 313 327 326 326 327 327 329 332 331 330 332 333 339 337 334 331 331 332 329 330 333 330 327 334 333 332 332 330 330 324 322 323 325 327 325 319 317 319 321 320 318
311 306 312 312 311 311 310 320 328 328 327 327 327 327 327 329 325 331 333 336 337 335 333 334 329 326 323 323 327 331 326 334 335 332 331 329 328 324 321 320 319 320 317 314 318 321 320 319 317
311 310 311 311 311 311 312 324 326 326 325 325 325 327 324 324 328 331 334 333 333 331 331 330 325 325 325 325 323 332 326 324 334 331 329 328 326 322 317 314 312 313 313 313 312 319 320 319 318
308 308 312 310 312 311 312 325 324 324 325 325 324 330 328 325 330 331 332 331 328 327 326 325 327 324 324 324 321 328 324 334 334 331 329 327 324 318 314 310 308 307 309 312 309 310 316 319 319
306 310 310 312 311 312 316 321 326 325 329 329 329 331 329 328 330 331 331 330 329 328 327 327 327 325 324 322 322 324 327 334 333 330 328 325 320 314 310 308 306 305 309 309 309 309 312 317 318
308 308 310 310 310 312 319 323 327 326 324 325 326 326 329 330 330 328 329 329 328 327 327 327 327 324 324 321 321 321 323 326 329 329 326 321 316 312 309 308 306 309 309 309 309 309 310 314 318
310 311 311 313 312 309 321 325 325 324 323 321 324 324 328 329 329 326 324 326 327 326 326 325 324 322 322 322 321 318 319 323 325 327 323 318 314 310 309 308 307 308 309 310 310 309 308 309 313
313 311 312 312 313 316 322 322 324 320 322 323 319 328 328 329 326 325 323 324 325 326 325 324 323 322 324 321 319 321 324 324 325 325 321 316 313 310 310 309 310 311 312 312 311 310 308 307 310
312 313 313 313 313 317 324 326 323 323 323 324 324 330 328 327 325 324 323 322 324 325 325 324 323 323 322 320 320 321 323 324 324 323 322 315 313 311 313 312 313 314 315 314 313 312 308 308 307
313 315 314 314 314 322 324 324 324 322 324 326 330 329 327 326 322 320 321 320 321 323 324 322 323 322 321 321 320 320 321 324 325 325 322 315 314 312 314 313 315 315 316 316 315 314 310 307 306
315 314 313 313 314 317 320 324 324 321 324 326 332 329 326 323 321 320 319 320 319 321 322 321 322 322 321 320 320 324 325 324 325 324 319 315 314 313 314 314 315 316 317 317 316 314 311 311 307
315 314 315 314 316 316 318 317 319 321 324 329 330 330 326 322 321 320 320 320 319 320 320 320 320 320 320 320 322 323 323 323 324 321 319 315 314 313 314 314 314 315 317 317 316 315 313 313 310
313 312 314 315 314 318 319 318 319 320 326 329 327 328 325 321 318 319 320 319 318 319 319 319 320 320 319 320 319 322 322 322 322 321 317 315 314 314 314 314 315 317 318 317 317 316 316 314 312
313 315 315 315 314 319 322 321 320 322 322 324 325 324 323 321 319 318 319 319 318 319 318 319 319 319 319 318 317 321 321 321 319 317 316 315 315 314 315 316 318 318 318 318 318 317 317 316 313
315 316 315 314 314 319 320 321 319 321 321 322 320 323 323 323 318 318 318 317 317 318 318 318 318 318 318 318 320 319 319 320 322 322 321 321 319 319 319 321 322 321 320 319 319 317 317 316 314
315 315 315 314 315 318 319 320 318 321 322 321 322 320 323 322 319 317 316 317 317 318 317 317 316 317 317 318 319 318 318 317 317 318 320 320 320 320 321 321 322 321 321 320 319 318 317 316 316
315 315 315 316 315 318 319 317 319 322 323 323 323 322 324 323 321 319 316 315 315 317 317 317 316 316 316 316 316 317 316 316 316 315 316 319 320 320 320 322 322 321 321 321 320 319 318 318 317
315 315 316 317 317 319 316 318 316 321 324 325 323 323 324 324 322 319 317 315 314 316 316 316 316 315 316 316 316 316 316 314 314 314 314 317 318 318 319 320 321 322 321 321 322 321 320 318 317
317 317 317 318 318 318 318 316 315 320 325 324 323 323 324 324 323 321 318 316 315 315 316 317 316 315 314 315 315 316 315 314 313 313 314 314 315 315 316 321 322 322 322 322 322 322 322 320 318
317 318 318 318 317 320 319 318 317 317 321 322 323 322 323 325 324 322 320 316 315 315 315 316 316 316 315 315 314 314 315 314 314 314 314 314 314 314 315 317 320 322 323 323 323 322 322 322 319
317 317 319 320 320 321 318 319 317 316 315 319 319 322 322 325 324 323 320 317 316 314 314 315 316 315 315 315 315 315 315 315 315 315 316 316 315 314 315 316 317 320 322 323 324 324 324 323 320
316 317 320 324 323 321 322 326 323 319 318 317 315 320 322 325 324 324 322 320 318 316 315 315 316 315 315 315 315 315 315 314 315 316 316 317 318 315 315 318 318 319 320 322 323 324 323 322 321
318 318 317 319 323 324 322 320 318 318 318 317 321 322 323 323 325 324 323 321 319 317 316 316 316 316 315 315 315 314 315 314 315 317 318 319 320 320 319 319 319 320 322 323 322 323 322 321 321
317 317 320 320 325 327 322 323 321 320 320 316 318 325 324 324 325 324 323 322 320 319 317 316 316 316 316 316 315 315 315 316 317 318 320 321 321 321 321 320 321 322 322 323 323 321 320 319 318
317 318 318 320 321 324 325 322 317 320 320 316 313 319 325 324 325 325 324 322 321 320 317 316 316 316 316 316 316 316 316 316 318 318 320 321 322 323 321 321 321 322 323 322 322 321 318 318 316
316 317 318 319 321 322 320 323 317 317 317 317 316 315 314 321 323 323 325 324 321 320 319 317 317 317 317 316 316 317 317 317 318 319 321 323 324 323 320 323 320 322 322 321 322 319 317 315 314